FW4770 Weather Reports


time (UTC)temp
F
wind
direction
speed
knots
gust
knots
rain 1hr
in
rain 24hr
in
rain mn
in
humidity
%
barometer
mb
20260905202019 82 191 4.3 7.8 0.00 0.00 0.00 71 1017.8
20260905201856 82 190 4.3 7.8 0.00 0.00 0.00 72 1017.8
20260905201801 82 164 4.3 7.8 0.00 0.00 0.00 71 1017.8
20260905201706 82 177 3.5 7.8 0.00 0.00 0.00 72 1017.9
20260905201610 82 132 4.3 7.8 0.00 0.00 0.00 71 1017.9
20260905201459 82 190 4.3 7.8 0.00 0.00 0.00 72 1017.8
20260905201423 82 190 4.3 7.8 0.00 0.00 0.00 72 1017.8
20260905201300 82 190 6.1 7.8 0.00 0.00 0.00 71 1017.8
20260905201223 82 173 5.2 7.8 0.00 0.00 0.00 72 1017.8
20260905201101 82 217 3.5 5.2 0.00 0.00 0.00 72 1017.8
20260905201005 82 228 3.5 6.1 0.00 0.00 0.00 73 1017.8
20260905200914 82 218 3.5 6.1 0.00 0.00 0.00 72 1017.8
20260905200818 82 254 3.5 6.1 0.00 0.00 0.00 73 1017.9
20260905200722 82 255 2.6 6.1 0.00 0.00 0.00 73 1017.9
20260905200601 82 258 3.5 6.1 0.00 0.00 0.00 73 1018.0
20260905200505 82 257 4.3 6.1 0.00 0.00 0.00 73 1018.0
20260905200410 82 252 3.5 6.1 0.00 0.00 0.00 74 1018.0
20260905200259 82 262 2.6 6.1 0.00 0.00 0.00 74 1018.0
20260905200224 82 268 2.6 6.1 0.00 0.00 0.00 73 1018.2
20260905200129 82 217 2.6 6.1 0.00 0.00 0.00 73 1018.2
20260905200012 82 217 3.5 6.1 0.00 0.00 0.00 73 1018.1
20260905195857 82 221 4.3 6.1 0.00 0.00 0.00 74 1018.2
20260905195822 82 229 4.3 7.0 0.00 0.00 0.00 73 1018.2
20260905195700 82 223 4.3 7.0 0.00 0.00 0.00 73 1018.2
20260905195609 82 245 5.2 7.0 0.00 0.00 0.00 73 1018.2
20260905195533 82 223 3.5 7.0 0.00 0.00 0.00 74 1018.2
20260905195417 82 234 2.6 7.0 0.00 0.00 0.00 73 1018.1
20260905195301 82 234 3.5 7.0 0.00 0.00 0.00 73 1018.0
20260905195206 82 235 3.5 7.0 0.00 0.00 0.00 73 1018.2
20260905195111 82 198 2.6 7.0 0.00 0.00 0.00 73 1018.2
20260905195015 82 196 3.5 7.0 0.00 0.00 0.00 74 1018.1
20260905194924 82 197 4.3 7.8 0.00 0.00 0.00 75 1018.0
20260905194808 81 233 2.6 7.8 0.00 0.00 0.00 74 1018.0
20260905194712 81 232 3.5 7.8 0.00 0.00 0.00 74 1018.1
20260905194557 81 217 4.3 7.8 0.00 0.00 0.00 74 1018.1
20260905194503 81 219 3.5 7.8 0.00 0.00 0.00 74 1018.1
20260905194427 81 212 2.6 7.8 0.00 0.00 0.00 74 1018.1
20260905194310 81 250 4.3 7.8 0.00 0.00 0.00 73 1018.1
20260905194159 81 249 5.2 7.8 0.00 0.00 0.00 74 1018.2
20260905194123 81 233 5.2 7.0 0.00 0.00 0.00 74 1018.2
20260905194001 81 200 4.3 7.8 0.00 0.00 0.00 75 1018.2
20260905193905 81 236 5.2 7.8 0.00 0.00 0.00 74 1018.2
20260905193810 81 259 5.2 7.8 0.00 0.00 0.00 73 1018.2
20260905193714 81 267 5.2 7.8 0.00 0.00 0.00 74 1018.1
20260905193603 81 223 4.3 7.0 0.00 0.00 0.00 73 1018.2
20260905193508 81 219 4.3 7.0 0.00 0.00 0.00 74 1018.2
20260905193433 81 225 3.5 7.0 0.00 0.00 0.00 75 1018.2
20260905193315 81 296 3.5 6.1 0.00 0.00 0.00 75 1018.2
20260905193218 81 209 1.7 6.1 0.00 0.00 0.00 75 1018.3
20260905193122 81 215 0.9 6.1 0.00 0.00 0.00 75 1018.3
20260905193000 80 215 2.6 6.1 0.00 0.00 0.00 75 1018.3
20260905192909 80 215 3.5 6.1 0.00 0.00 0.00 75 1018.3
20260905192833 81 214 3.5 6.1 0.00 0.00 0.00 75 1018.3
20260905192657 81 211 3.5 6.1 0.00 0.00 0.00 75 1018.3
20260905192601 81 205 2.6 6.1 0.00 0.00 0.00 75 1018.3
20260905192507 81 192 2.6 6.1 0.00 0.00 0.00 75 1018.4
20260905192411 81 199 3.5 6.1 0.00 0.00 0.00 75 1018.4
20260905192320 81 198 3.5 6.1 0.00 0.00 0.00 75 1018.3
20260905192158 80 182 1.7 6.1 0.00 0.00 0.00 75 1018.4
20260905192103 80 179 1.7 6.1 0.00 0.00 0.00 75 1018.3
20260905192008 80 179 2.6 6.1 0.00 0.00 0.00 75 1018.3
20260905191933 80 179 4.3 6.1 0.00 0.00 0.00 75 1018.3
20260905191757 81 192 4.3 6.1 0.00 0.00 0.00 75 1018.3
20260905191705 80 205 3.5 7.0 0.00 0.00 0.00 75 1018.3
20260905191610 80 229 3.5 7.0 0.00 0.00 0.00 75 1018.3
20260905191514 80 234 4.3 7.0 0.00 0.00 0.00 76 1018.3
20260905191359 80 251 4.3 7.0 0.00 0.00 0.00 76 1018.3
20260905191302 80 228 3.5 6.1 0.00 0.00 0.00 76 1018.4
20260905191207 80 169 3.5 6.1 0.00 0.00 0.00 76 1018.4
20260905191116 80 196 3.5 6.1 0.00 0.00 0.00 76 1018.3
20260905191020 80 214 2.6 5.2 0.00 0.00 0.00 76 1018.3
20260905190857 80 190 3.5 6.1 0.00 0.00 0.00 77 1018.3
20260905190800 80 182 1.7 6.1 0.00 0.00 0.00 78 1018.3
20260905190705 80 218 0.9 7.8 0.00 0.00 0.00 77 1018.3
20260905190610 80 218 2.6 7.8 0.00 0.00 0.00 77 1018.3
20260905190459 79 218 2.6 7.8 0.00 0.00 0.00 76 1018.4
20260905190404 79 217 2.6 7.8 0.00 0.00 0.00 77 1018.3
20260905190310 79 216 3.5 7.8 0.00 0.00 0.00 77 1018.3
20260905190214 79 213 3.5 7.8 0.00 0.00 0.00 77 1018.3
20260905190100 79 211 4.3 7.8 0.00 0.00 0.00 77 1018.3
20260905190024 79 224 5.2 7.8 0.00 0.00 0.00 77 1018.3
20260905185911 79 204 4.3 7.8 0.00 0.00 0.00 78 1018.3
20260905185757 79 198 2.6 8.7 0.00 0.00 0.00 78 1018.3
20260905185721 79 254 2.6 8.7 0.00 0.00 0.00 78 1018.3
20260905185604 79 244 3.5 8.7 0.00 0.00 0.00 77 1018.3
20260905185509 79 244 4.3 8.7 0.00 0.00 0.00 77 1018.3
20260905185414 79 248 5.2 8.7 0.00 0.00 0.00 77 1018.3
20260905185305 79 250 6.1 8.7 0.00 0.00 0.00 77 1018.3
20260905185207 79 243 6.1 8.7 0.00 0.00 0.00 77 1018.3
20260905185112 79 208 6.1 8.7 0.00 0.00 0.00 77 1018.3
20260905184957 79 257 7.0 8.7 0.00 0.00 0.00 77 1018.4
20260905184902 79 250 7.0 8.7 0.00 0.00 0.00 78 1018.3
20260905184826 79 263 4.3 8.7 0.00 0.00 0.00 79 1018.3
20260905184710 79 254 2.6 7.0 0.00 0.00 0.00 81 1018.3
20260905184618 79 274 1.7 5.2 0.00 0.00 0.00 80 1018.3
20260905184543 78 96 1.7 5.2 0.00 0.00 0.00 79 1018.3
20260905184401 78 114 2.6 5.2 0.00 0.00 0.00 78 1018.3
20260905184305 78 119 1.7 7.0 0.00 0.00 0.00 78 1018.3
20260905184210 78 165 1.7 7.0 0.00 0.00 0.00 79 1018.3
20260905184003 78 166 2.6 7.0 0.00 0.00 0.00 79 1018.4
20260905183908 78 200 3.5 7.0 0.00 0.00 0.00 79 1018.4
20260905183813 78 200 4.3 7.0 0.00 0.00 0.00 79 1018.3
20260905183659 78 190 3.5 7.0 0.00 0.00 0.00 80 1018.4
20260905183604 78 202 3.5 7.0 0.00 0.00 0.00 79 1018.4
20260905183508 78 180 3.5 7.0 0.00 0.00 0.00 79 1018.4
20260905183357 78 175 2.6 6.1 0.00 0.00 0.00 79 1018.5
20260905183321 78 173 3.5 6.1 0.00 0.00 0.00 80 1018.5
20260905183225 78 172 3.5 6.1 0.00 0.00 0.00 80 1018.5
20260905183109 78 177 2.6 6.1 0.00 0.00 0.00 81 1018.5
20260905183014 78 175 3.5 7.0 0.00 0.00 0.00 80 1018.5
20260905182859 78 176 5.2 7.8 0.00 0.00 0.00 80 1018.5
20260905182808 78 184 5.2 7.8 0.00 0.00 0.00 81 1018.5
20260905182733 78 219 5.2 7.8 0.00 0.00 0.00 80 1018.5
20260905182556 77 215 4.3 7.8 0.00 0.00 0.00 80 1018.5
20260905182522 77 180 4.3 7.8 0.00 0.00 0.00 80 1018.6
20260905182405 77 188 4.3 7.8 0.00 0.00 0.00 80 1018.6
20260905182310 77 191 5.2 7.8 0.00 0.00 0.00 81 1018.6
20260905182215 77 182 4.3 7.8 0.00 0.00 0.00 81 1018.6
20260905182102 77 198 1.7 6.1 0.00 0.00 0.00 81 1018.5
20260905182007 77 200 2.6 6.1 0.00 0.00 0.00 81 1018.5
20260905181913 77 200 4.3 6.1 0.00 0.00 0.00 81 1018.6
20260905181817 77 211 2.6 6.1 0.00 0.00 0.00 82 1018.7
20260905181701 77 198 1.7 4.3 0.00 0.00 0.00 82 1018.6
20260905181606 77 197 0.9 4.3 0.00 0.00 0.00 82 1018.5
20260905181511 77 197 0.9 7.0 0.00 0.00 0.00 81 1018.5
20260905181400 77 197 0.9 7.0 0.00 0.00 0.00 81 1018.6
20260905181304 77 197 0.9 7.0 0.00 0.00 0.00 81 1018.6
20260905181209 77 197 0.9 9.6 0.00 0.00 0.00 81 1018.6
20260905181113 77 197 0.9 9.6 0.00 0.00 0.00 81 1018.6
20260905180959 77 197 1.7 9.6 0.00 0.00 0.00 81 1018.7
20260905180907 77 197 1.7 9.6 0.00 0.00 0.00 81 1018.7
20260905180812 77 197 3.5 9.6 0.00 0.00 0.00 81 1018.7
20260905180715 77 197 4.3 9.6 0.00 0.00 0.00 81 1018.7
20260905180601 77 167 5.2 9.6 0.00 0.00 0.00 82 1018.7
20260905180505 77 173 6.1 9.6 0.00 0.00 0.00 82 1018.7
20260905180410 77 167 6.1 9.6 0.00 0.00 0.00 82 1018.7
20260905180258 77 196 6.1 7.8 0.00 0.00 0.00 83 1018.7
20260905180222 77 178 5.2 7.8 0.00 0.00 0.00 83 1018.7
20260905180100 77 186 4.3 7.0 0.00 0.00 0.00 83 1018.8
20260905180023 76 188 2.6 6.1 0.00 0.00 0.00 83 1018.8
20260905175900 76 211 2.6 6.1 0.00 0.00 0.00 83 1018.8
20260905175806 76 211 4.3 6.1 0.00 0.00 0.00 83 1018.8
20260905175710 76 201 4.3 6.1 0.00 0.00 0.00 83 1018.8
20260905175618 76 240 3.5 7.0 0.00 0.00 0.00 84 1018.8
20260905175522 76 236 3.5 7.0 0.00 0.00 0.00 84 1018.8
20260905175406 76 196 2.6 7.0 0.00 0.00 0.00 84 1018.8
20260905175311 76 161 1.7 7.0 0.00 0.00 0.00 84 1018.8
20260905175216 76 161 0.9 7.0 0.00 0.00 0.00 84 1018.8
20260905175101 76 180 1.7 7.0 0.00 0.00 0.00 84 1018.8
20260905175009 76 180 3.5 7.0 0.00 0.00 0.00 84 1018.8
20260905174934 76 180 4.3 7.0 0.00 0.00 0.00 85 1018.8
20260905174818 76 196 4.3 7.0 0.00 0.00 0.00 85 1018.8
20260905174721 76 202 3.5 7.8 0.00 0.00 0.00 85 1018.8
20260905174603 76 209 3.5 7.8 0.00 0.00 0.00 85 1018.8
20260905174508 75 155 2.6 7.8 0.00 0.00 0.00 85 1018.8
20260905174413 75 155 3.5 7.8 0.00 0.00 0.00 85 1018.8
20260905174318 75 146 4.3 7.8 0.00 0.00 0.00 85 1018.8
20260905174206 75 154 4.3 10.4 0.00 0.00 0.00 85 1018.8
20260905174110 75 171 4.3 10.4 0.00 0.00 0.00 85 1018.8
20260905174015 75 129 3.5 10.4 0.00 0.00 0.00 86 1018.8
20260905173920 75 178 3.5 10.4 0.00 0.00 0.00 85 1018.9
20260905173823 75 165 5.2 10.4 0.00 0.00 0.00 85 1018.9
20260905173727 75 193 5.2 10.4 0.00 0.00 0.00 86 1018.9
20260905173611 75 188 5.2 10.4 0.00 0.00 0.00 86 1018.9
20260905173535 75 184 7.0 10.4 0.00 0.00 0.00 86 1018.9
20260905173422 75 195 6.1 10.4 0.00 0.00 0.00 87 1018.9
20260905173300 75 198 5.2 7.0 0.00 0.00 0.00 87 1018.8
20260905173205 75 205 5.2 7.0 0.00 0.00 0.00 86 1018.8
20260905173109 75 202 3.5 6.1 0.00 0.00 0.00 87 1018.8
20260905173034 75 221 3.5 7.0 0.00 0.00 0.00 87 1018.8
20260905172857 75 173 3.5 6.1 0.00 0.00 0.00 88 1018.8
20260905172802 75 165 1.7 6.1 0.00 0.00 0.00 89 1018.7
20260905172730 74 120 1.7 6.1 0.00 0.00 0.00 88 1018.7
20260905172634 74 119 2.6 6.1 0.00 0.00 0.00 88 1018.7
20260905172518 74 118 4.3 6.1 0.00 0.00 0.00 88 1018.7
20260905172442 74 158 4.3 6.1 0.00 0.00 0.00 88 1018.7
20260905172257 74 180 3.5 7.8 0.00 0.00 0.00 88 1018.7
20260905172220 74 161 3.5 7.8 0.00 0.00 0.00 88 1018.7
20260905172057 74 166 3.5 7.8 0.00 0.00 0.00 88 1018.7
20260905172022 74 158 2.6 7.8 0.00 0.00 0.00 88 1018.8
20260905171929 74 169 4.3 7.8 0.00 0.00 0.00 88 1018.8
20260905171812 74 178 5.2 11.3 0.00 0.00 0.00 88 1018.8
20260905171716 74 164 5.2 11.3 0.00 0.00 0.00 88 1018.8
20260905171642 74 172 5.2 11.3 0.00 0.00 0.00 88 1018.8
20260905171457 74 163 5.2 11.3 0.00 0.00 0.00 88 1018.9
20260905171402 74 158 6.1 11.3 0.00 0.00 0.00 88 1018.8
20260905171307 74 198 6.1 11.3 0.00 0.00 0.00 88 1018.8
20260905171216 74 192 6.1 11.3 0.00 0.00 0.00 88 1018.8
20260905171118 74 175 7.0 11.3 0.00 0.00 0.00 88 1018.8
20260905171043 74 178 7.0 11.3 0.00 0.00 0.00 89 1018.8
20260905170859 74 205 5.2 7.8 0.00 0.00 0.00 89 1018.8
20260905170803 74 168 5.2 7.8 0.00 0.00 0.00 89 1018.8
20260905170727 74 178 6.1 7.8 0.00 0.00 0.00 89 1018.8
20260905170610 74 188 5.2 7.8 0.00 0.00 0.00 90 1018.8
20260905170459 73 209 4.3 6.1 0.00 0.00 0.00 89 1018.9
20260905170404 73 223 4.3 7.8 0.00 0.00 0.00 90 1018.9
20260905170309 73 221 3.5 7.8 0.00 0.00 0.00 90 1018.9
20260905170234 73 222 2.6 7.8 0.00 0.00 0.00 90 1019.0
20260905170118 73 217 3.5 7.8 0.00 0.00 0.00 90 1019.1
20260905165956 73 218 4.3 7.8 0.00 0.00 0.00 90 1019.2
20260905165921 73 219 3.5 7.8 0.00 0.00 0.00 90 1019.2
20260905165808 73 222 3.5 7.8 0.00 0.00 0.00 90 1019.2
20260905165733 73 224 4.3 7.8 0.00 0.00 0.00 90 1019.1
20260905165616 73 226 6.1 7.8 0.00 0.00 0.00 90 1019.2
20260905165520 73 248 6.1 7.8 0.00 0.00 0.00 90 1019.2
20260905165356 73 224 3.5 7.8 0.00 0.00 0.00 91 1019.2
20260905165302 73 223 3.5 7.8 0.00 0.00 0.00 91 1019.2
20260905165210 73 174 3.5 7.8 0.00 0.00 0.00 91 1019.2
20260905165114 73 168 4.3 7.8 0.00 0.00 0.00 91 1019.1
20260905164959 73 152 4.3 7.8 0.00 0.00 0.00 91 1019.0
20260905164904 73 167 5.2 7.8 0.00 0.00 0.00 91 1019.1
20260905164807 73 152 4.3 7.8 0.00 0.00 0.00 92 1019.0
20260905164711 73 167 3.5 7.0 0.00 0.00 0.00 92 1019.0
20260905164559 73 181 4.3 7.0 0.00 0.00 0.00 92 1019.1
20260905164524 73 185 5.2 7.0 0.00 0.00 0.00 92 1019.0
20260905164407 73 184 5.2 7.0 0.00 0.00 0.00 93 1019.0
20260905164312 72 180 5.2 7.0 0.00 0.00 0.00 93 1019.1
20260905164157 72 192 4.3 7.0 0.00 0.00 0.00 93 1019.1
20260905164103 72 200 5.2 7.0 0.00 0.00 0.00 93 1019.2
20260905164011 72 197 5.2 7.0 0.00 0.00 0.00 93 1019.2
20260905163856 72 197 5.2 7.0 0.00 0.00 0.00 93 1019.2
20260905163821 72 196 4.3 6.1 0.00 0.00 0.00 93 1019.2
20260905163658 72 180 2.6 5.2 0.00 0.00 0.00 94 1019.1
20260905163623 72 175 2.6 5.2 0.00 0.00 0.00 94 1019.2
20260905163506 72 150 1.7 5.2 0.00 0.00 0.00 94 1019.1
20260905163408 72 149 1.7 5.2 0.00 0.00 0.00 94 1019.1
20260905163257 72 149 2.6 5.2 0.00 0.00 0.00 94 1019.2
20260905163202 71 148 3.5 5.2 0.00 0.00 0.00 94 1019.1
20260905163106 71 149 3.5 5.2 0.00 0.00 0.00 94 1019.1
20260905163010 71 170 2.6 4.3 0.00 0.00 0.00 94 1019.1
20260905162915 71 175 2.6 4.3 0.00 0.00 0.00 94 1019.1
20260905162820 71 176 2.6 3.5 0.00 0.00 0.00 95 1019.2
20260905162708 71 177 2.6 3.5 0.00 0.00 0.00 95 1019.2
20260905162614 71 178 1.7 3.5 0.00 0.00 0.00 95 1019.1
20260905162518 71 178 1.7 3.5 0.00 0.00 0.00 95 1019.2
20260905162356 71 178 1.7 2.6 0.00 0.00 0.00 95 1019.3
20260905162300 71 178 1.7 2.6 0.00 0.00 0.00 95 1019.3
20260905162204 71 178 1.7 2.6 0.00 0.00 0.00 95 1019.4
20260905162109 71 178 1.7 2.6 0.00 0.00 0.00 95 1019.4
20260905162017 71 178 2.6 2.6 0.00 0.00 0.00 95 1019.4
20260905161901 71 178 1.7 2.6 0.00 0.00 0.00 95 1019.4
20260905161806 71 178 1.7 2.6 0.00 0.00 0.00 95 1019.5
20260905161730 71 178 0.9 2.6 0.00 0.00 0.00 95 1019.5
20260905161614 71 178 0.9 2.6 0.00 0.00 0.00 95 1019.5
20260905161459 71 178 0.9 2.6 0.00 0.00 0.00 95 1019.5
20260905161407 71 178 0.0 2.6 0.00 0.00 0.00 96 1019.5
20260905161312 71 178 0.9 3.5 0.00 0.00 0.00 95 1019.5
20260905161237 71 178 0.9 3.5 0.00 0.00 0.00 96 1019.4
20260905161101 71 178 1.7 3.5 0.00 0.00 0.00 96 1019.4
20260905161004 71 178 1.7 3.5 0.00 0.00 0.00 96 1019.5
20260905160928 71 178 1.7 3.5 0.00 0.00 0.00 96 1019.4
20260905160811 71 178 1.7 3.5 0.00 0.00 0.00 96 1019.4
20260905160721 71 179 1.7 3.5 0.00 0.00 0.00 96 1019.3
20260905160557 71 180 2.6 4.3 0.00 0.00 0.00 96 1019.3
20260905160522 71 180 2.6 4.3 0.00 0.00 0.00 97 1019.3
20260905160400 70 190 1.7 4.3 0.00 0.00 0.00 97 1019.4
20260905160325 71 190 1.7 4.3 0.00 0.00 0.00 97 1019.4
20260905160208 70 190 0.9 4.3 0.00 0.00 0.00 97 1019.5
20260905160131 70 190 0.9 4.3 0.00 0.00 0.00 97 1019.5
20260905160020 70 190 2.6 4.3 0.00 0.00 0.00 97 1019.4
20260905155904 70 190 2.6 4.3 0.00 0.00 0.00 97 1019.4
20260905155828 70 190 2.6 4.3 0.00 0.00 0.00 97 1019.4
20260905155732 70 190 2.6 4.3 0.00 0.00 0.00 97 1019.4
20260905155615 70 189 3.5 4.3 0.00 0.00 0.00 97 1019.3
20260905155521 70 188 3.5 5.2 0.00 0.00 0.00 97 1019.3
20260905155404 70 188 2.6 5.2 0.00 0.00 0.00 97 1019.3
20260905155309 70 188 1.7 5.2 0.00 0.00 0.00 97 1019.3
20260905155159 70 188 2.6 5.2 0.00 0.00 0.00 97 1019.5
20260905155123 70 189 1.7 6.1 0.00 0.00 0.00 97 1019.4
20260905155007 70 189 0.9 6.1 0.00 0.00 0.00 97 1019.4
20260905154912 70 189 0.9 8.7 0.00 0.00 0.00 97 1019.4
20260905154757 70 189 2.6 8.7 0.00 0.00 0.00 98 1019.3
20260905154702 70 189 3.5 8.7 0.00 0.00 0.00 98 1019.2
20260905154611 70 188 4.3 8.7 0.00 0.00 0.00 98 1019.2
20260905154514 70 200 4.3 8.7 0.00 0.00 0.00 98 1019.1
20260905154400 70 233 4.3 8.7 0.00 0.00 0.00 98 1019.0
20260905154304 70 221 4.3 8.7 0.00 0.00 0.00 98 1019.0
20260905154208 70 171 5.2 8.7 0.00 0.00 0.00 98 1019.0
20260905154057 70 189 5.2 8.7 0.00 0.00 0.00 98 1018.9
20260905154019 70 205 4.3 7.0 0.00 0.00 0.00 98 1018.9
20260905153922 70 175 3.5 7.0 0.00 0.00 0.00 98 1018.9
20260905153759 70 164 2.6 7.0 0.00 0.00 0.00 98 1018.8
20260905153723 70 165 3.5 7.0 0.00 0.00 0.00 98 1018.7
20260905153608 70 167 4.3 8.7 0.00 0.00 0.00 98 1018.7
20260905153512 70 188 4.3 8.7 0.00 0.00 0.00 98 1018.7
20260905153417 69 175 3.5 8.7 0.00 0.00 0.00 98 1018.7
20260905153325 69 199 4.3 8.7 0.00 0.00 0.00 98 1018.7
20260905153209 69 181 4.3 8.7 0.00 0.00 0.00 98 1018.7
20260905153113 69 155 4.3 8.7 0.00 0.00 0.00 98 1018.7
20260905152958 69 158 3.5 8.7 0.00 0.00 0.00 98 1018.7
20260905152903 69 193 4.3 8.7 0.00 0.00 0.00 98 1018.7
20260905152828 69 173 4.3 8.7 0.00 0.00 0.00 98 1018.7
20260905152712 69 151 3.5 7.8 0.00 0.00 0.00 98 1018.7
20260905152620 69 170 1.7 7.8 0.00 0.00 0.00 98 1018.7
20260905152504 69 170 2.6 7.8 0.00 0.00 0.00 98 1018.7
20260905152427 69 170 4.3 7.8 0.00 0.00 0.00 98 1018.8
20260905152331 69 175 4.3 7.8 0.00 0.00 0.00 98 1018.8
20260905152215 69 150 4.3 7.8 0.00 0.00 0.00 98 1018.8
20260905152120 68 140 5.2 7.8 0.00 0.00 0.00 98 1018.8
20260905152003 68 142 4.3 7.0 0.00 0.00 0.00 98 1018.7
20260905151912 68 159 3.5 7.0 0.00 0.00 0.00 98 1018.7
20260905151837 68 156 2.6 7.0 0.00 0.00 0.00 98 1018.8
20260905151720 68 152 3.5 7.0 0.00 0.00 0.00 98 1018.7
20260905151557 68 153 3.5 7.0 0.00 0.00 0.00 98 1018.8
20260905151502 68 155 3.5 7.0 0.00 0.00 0.00 98 1018.8
20260905151407 68 198 3.5 7.0 0.00 0.00 0.00 98 1018.7
20260905151311 68 151 1.7 7.0 0.00 0.00 0.00 98 1018.7
20260905151220 68 149 1.7 7.0 0.00 0.00 0.00 98 1018.8
20260905151103 68 149 3.5 7.0 0.00 0.00 0.00 98 1018.7
20260905151009 68 149 3.5 7.0 0.00 0.00 0.00 98 1018.7
20260905150913 68 146 2.6 7.0 0.00 0.00 0.00 98 1018.7
20260905150758 68 154 2.6 7.0 0.00 0.00 0.00 98 1018.7
20260905150702 68 154 4.3 7.0 0.00 0.00 0.00 98 1018.7
20260905150611 68 163 4.3 7.0 0.00 0.00 0.00 98 1018.7
20260905150516 68 139 2.6 7.0 0.00 0.00 0.00 98 1018.7
20260905150400 68 157 2.6 4.3 0.00 0.00 0.00 98 1018.7
20260905150306 68 156 2.6 4.3 0.00 0.00 0.00 98 1018.8
20260905150210 68 155 2.6 4.3 0.00 0.00 0.00 98 1018.8
20260905150114 68 150 2.6 3.5 0.00 0.00 0.00 98 1018.8
20260905150003 68 146 2.6 3.5 0.00 0.00 0.00 98 1018.8
20260905145928 68 146 2.6 5.2 0.00 0.00 0.00 98 1018.8
20260905145812 68 146 1.7 5.2 0.00 0.00 0.00 98 1018.8
20260905145715 67 146 1.7 5.2 0.00 0.00 0.00 98 1018.8
20260905145620 67 146 1.7 5.2 0.00 0.00 0.00 98 1018.8
20260905145504 67 148 1.7 5.2 0.00 0.00 0.00 98 1018.9
20260905145409 67 148 2.6 5.2 0.00 0.00 0.00 98 1018.9
20260905145258 67 148 2.6 5.2 0.00 0.00 0.00 98 1018.9
20260905145202 67 140 2.6 5.2 0.00 0.00 0.00 98 1018.9
20260905145107 67 122 2.6 5.2 0.00 0.00 0.00 98 1018.9
20260905145012 67 124 2.6 5.2 0.00 0.00 0.00 98 1018.9
20260905144937 67 124 2.6 4.3 0.00 0.00 0.00 98 1018.9
20260905144820 67 123 1.7 3.5 0.00 0.00 0.00 98 1018.9
20260905144723 67 123 1.7 3.5 0.00 0.00 0.00 98 1018.8
20260905144627 67 123 2.6 5.2 0.00 0.00 0.00 98 1018.9
20260905144514 67 123 1.7 5.2 0.00 0.00 0.00 98 1018.9
20260905144436 67 123 1.7 5.2 0.00 0.00 0.00 98 1018.9
20260905144319 67 122 1.7 5.2 0.00 0.00 0.00 98 1018.9
20260905144157 67 121 1.7 5.2 0.00 0.00 0.00 98 1018.9
20260905144122 67 122 1.7 5.2 0.00 0.00 0.00 98 1018.9
20260905144003 67 122 1.7 5.2 0.00 0.00 0.00 98 1018.9
20260905143908 67 121 2.6 5.2 0.00 0.00 0.00 98 1018.9
20260905143757 67 121 3.5 5.2 0.00 0.00 0.00 98 1018.9
20260905143722 67 113 2.6 5.2 0.00 0.00 0.00 98 1018.9
20260905143600 67 127 1.7 3.5 0.00 0.00 0.00 98 1018.9
20260905143504 67 124 1.7 5.2 0.00 0.00 0.00 98 1018.9
20260905143429 67 123 2.6 5.2 0.00 0.00 0.00 98 1018.9
20260905143313 67 122 2.6 5.2 0.00 0.00 0.00 98 1018.9
20260905143222 67 110 1.7 5.2 0.00 0.00 0.00 98 1018.9
20260905143106 67 110 1.7 5.2 0.00 0.00 0.00 98 1018.9
20260905143031 67 110 2.6 5.2 0.00 0.00 0.00 98 1018.8
20260905142915 67 110 2.6 5.2 0.00 0.00 0.00 98 1018.9
20260905142800 67 109 2.6 5.2 0.00 0.00 0.00 98 1018.9
20260905142705 67 109 2.6 5.2 0.00 0.00 0.00 98 1018.9
20260905142610 67 109 2.6 5.2 0.00 0.00 0.00 98 1018.9
20260905142520 67 108 2.6 5.2 0.00 0.00 0.00 98 1019.0
20260905142357 67 109 2.6 5.2 0.00 0.00 0.00 98 1019.0
20260905142305 67 109 2.6 5.2 0.00 0.00 0.00 98 1019.0
20260905142207 67 110 2.6 5.2 0.00 0.00 0.00 98 1019.0
20260905142112 67 108 2.6 3.5 0.00 0.00 0.00 98 1019.0
20260905142000 67 108 2.6 3.5 0.00 0.00 0.00 98 1019.0
20260905141925 67 108 2.6 3.5 0.00 0.00 0.00 98 1019.0
20260905141829 67 109 2.6 3.5 0.00 0.00 0.00 98 1019.0
20260905141713 67 109 2.6 3.5 0.00 0.00 0.00 98 1018.9
20260905141618 66 109 2.6 3.5 0.00 0.00 0.00 98 1019.0
20260905141502 66 109 1.7 3.5 0.00 0.00 0.00 98 1019.0
20260905141408 66 109 1.7 3.5 0.00 0.00 0.00 98 1019.0
20260905141332 66 109 1.7 3.5 0.00 0.00 0.00 98 1019.0
20260905141219 66 109 0.9 3.5 0.00 0.00 0.00 98 1019.0
20260905141122 66 109 0.9 3.5 0.00 0.00 0.00 98 1019.0
20260905141000 66 109 1.7 3.5 0.00 0.00 0.00 98 1019.1
20260905140904 66 109 1.7 3.5 0.00 0.00 0.00 98 1019.1
20260905140809 66 109 1.7 3.5 0.00 0.00 0.00 98 1019.1
20260905140714 66 109 1.7 3.5 0.00 0.00 0.00 98 1019.1
20260905140603 66 109 1.7 5.2 0.00 0.00 0.00 98 1019.1
20260905140528 66 109 1.7 5.2 0.00 0.00 0.00 98 1019.1
20260905140411 66 109 1.7 5.2 0.00 0.00 0.00 98 1019.1
20260905140336 66 109 2.6 5.2 0.00 0.00 0.00 98 1019.1
20260905140200 66 109 2.6 5.2 0.00 0.00 0.00 98 1019.0
20260905140105 66 109 1.7 5.2 0.00 0.00 0.00 98 1019.0
20260905140010 66 109 2.6 5.2 0.00 0.00 0.00 98 1019.0
20260905135859 66 109 2.6 5.2 0.00 0.00 0.00 98 1019.0
20260905135824 66 110 2.6 5.2 0.00 0.00 0.00 98 1018.8
20260905135729 66 109 2.6 5.2 0.00 0.00 0.00 98 1018.8
20260905135632 66 109 3.5 5.2 0.00 0.00 0.00 98 1019.0
20260905135515 66 109 2.6 5.2 0.00 0.00 0.00 98 1018.9
20260905135422 66 111 2.6 3.5 0.00 0.00 0.00 98 1018.9
20260905135259 66 111 2.6 3.5 0.00 0.00 0.00 98 1018.9
20260905135208 66 111 2.6 3.5 0.00 0.00 0.00 98 1018.9
20260905135133 66 111 2.6 3.5 0.00 0.00 0.00 98 1018.8
20260905135036 66 111 2.6 3.5 0.00 0.00 0.00 98 1018.8
20260905134900 66 112 2.6 3.5 0.00 0.00 0.00 98 1018.8
20260905134805 66 113 2.6 3.5 0.00 0.00 0.00 98 1018.8
20260905134710 66 112 2.6 3.5 0.00 0.00 0.00 98 1018.8
20260905134615 66 112 2.6 3.5 0.00 0.00 0.00 98 1018.9
20260905134524 66 113 1.7 3.5 0.00 0.00 0.00 98 1018.9
20260905134408 66 113 1.7 3.5 0.00 0.00 0.00 98 1018.9
20260905134314 66 113 1.7 3.5 0.00 0.00 0.00 98 1018.9
20260905134218 66 113 1.7 5.2 0.00 0.00 0.00 98 1018.7
20260905134102 66 113 1.7 5.2 0.00 0.00 0.00 98 1018.7
20260905134007 66 113 1.7 5.2 0.00 0.00 0.00 98 1018.7
20260905133932 66 113 1.7 5.2 0.00 0.00 0.00 98 1018.7
20260905133820 66 113 2.6 5.2 0.00 0.00 0.00 98 1018.7
20260905133657 66 113 2.6 5.2 0.00 0.00 0.00 98 1018.7
20260905133622 66 114 2.6 5.2 0.00 0.00 0.00 98 1018.7
20260905133459 66 98 2.6 5.2 0.00 0.00 0.00 98 1018.7
20260905133404 66 110 2.6 5.2 0.00 0.00 0.00 98 1018.7
20260905133309 66 113 2.6 3.5 0.00 0.00 0.00 98 1018.7
20260905133157 66 113 1.7 3.5 0.00 0.00 0.00 98 1018.7
20260905133122 66 114 1.7 3.5 0.00 0.00 0.00 98 1018.7
20260905133000 66 114 1.7 3.5 0.00 0.00 0.00 98 1018.6
20260905132903 66 113 2.6 3.5 0.00 0.00 0.00 98 1018.5
20260905132828 66 113 2.6 3.5 0.00 0.00 0.00 98 1018.5
20260905132732 66 115 2.6 3.5 0.00 0.00 0.00 98 1018.4
20260905132557 66 115 2.6 3.5 0.00 0.00 0.00 98 1018.4
20260905132505 66 115 2.6 3.5 0.00 0.00 0.00 98 1018.4
20260905132410 66 115 2.6 3.5 0.00 0.00 0.00 98 1018.4
20260905132334 66 115 2.6 3.5 0.00 0.00 0.00 98 1018.3
20260905132218 66 115 2.6 3.5 0.00 0.00 0.00 98 1018.3
20260905132143 66 115 2.6 3.5 0.00 0.00 0.00 98 1018.3
20260905131959 66 115 2.6 3.5 0.00 0.00 0.00 98 1018.2
20260905131904 66 116 1.7 3.5 0.00 0.00 0.00 98 1018.2
20260905131813 66 116 1.7 3.5 0.00 0.00 0.00 98 1018.2
20260905131658 66 116 1.7 3.5 0.00 0.00 0.00 98 1018.2
20260905131602 66 116 1.7 3.5 0.00 0.00 0.00 98 1018.2
20260905131507 66 116 2.6 5.2 0.00 0.00 0.00 98 1018.2
20260905131412 66 116 2.6 5.2 0.00 0.00 0.00 98 1018.2
20260905131301 66 117 2.6 5.2 0.00 0.00 0.00 98 1018.0
20260905131205 66 117 2.6 6.1 0.00 0.00 0.00 98 1018.0
20260905131110 66 117 2.6 6.1 0.00 0.00 0.00 98 1018.0
20260905131015 66 117 1.7 6.1 0.00 0.00 0.00 98 1018.0
20260905130900 66 117 2.6 6.1 0.00 0.00 0.00 98 1018.0
20260905130825 66 118 3.5 7.0 0.00 0.00 0.00 98 1018.0
20260905130708 66 113 3.5 7.8 0.00 0.00 0.00 98 1018.0
20260905130557 66 90 3.5 7.8 0.00 0.00 0.00 98 1017.9
20260905130502 66 99 4.3 7.8 0.00 0.00 0.00 98 1017.8
20260905130406 66 112 4.3 7.8 0.00 0.00 0.00 98 1017.7
20260905130310 66 109 4.3 7.8 0.00 0.00 0.00 98 1017.7
20260905130216 65 114 3.5 7.8 0.00 0.00 0.00 98 1017.7
20260905130104 65 120 4.3 7.8 0.00 0.00 0.00 98 1017.6
20260905130029 65 155 5.2 7.8 0.00 0.00 0.00 98 1017.6
20260905125913 65 111 5.2 7.8 0.00 0.00 0.00 98 1017.6
20260905125758 66 124 5.2 7.0 0.00 0.00 0.00 98 1017.5
20260905125702 65 109 4.3 7.0 0.00 0.00 0.00 98 1017.5
20260905125607 65 116 4.3 6.1 0.00 0.00 0.00 98 1017.5
20260905125512 65 123 4.3 6.1 0.00 0.00 0.00 98 1017.5
20260905125420 65 117 4.3 7.8 0.00 0.00 0.00 98 1017.6
20260905125258 65 117 4.3 7.8 0.00 0.00 0.00 98 1017.5
20260905125222 65 120 4.3 7.8 0.00 0.00 0.00 98 1017.5
20260905125106 65 105 3.5 7.8 0.00 0.00 0.00 98 1017.4
20260905125011 65 112 4.3 7.8 0.00 0.00 0.00 98 1017.4
20260905124915 65 108 4.3 7.8 0.00 0.00 0.00 98 1017.4
20260905124824 65 115 4.3 7.8 0.00 0.00 0.00 98 1017.3
20260905124707 65 107 4.3 7.8 0.00 0.00 0.00 98 1017.3
20260905124612 65 125 3.5 7.0 0.00 0.00 0.00 98 1017.3
20260905124456 65 134 3.5 7.0 0.00 0.00 0.00 98 1017.2
20260905124421 65 121 3.5 7.0 0.00 0.00 0.00 98 1017.2
20260905124259 65 132 3.5 7.0 0.00 0.00 0.00 97 1017.2
20260905124208 65 133 3.5 7.0 0.00 0.00 0.00 97 1017.2
20260905124113 65 130 3.5 7.0 0.00 0.00 0.00 97 1017.2
20260905124019 65 123 4.3 7.0 0.00 0.00 0.00 97 1017.2
20260905123902 65 108 3.5 7.0 0.00 0.00 0.00 98 1017.2
20260905123807 65 118 2.6 7.0 0.00 0.00 0.00 98 1017.2
20260905123732 65 123 2.6 7.0 0.00 0.00 0.00 98 1017.2
20260905123616 65 165 3.5 7.0 0.00 0.00 0.00 98 1017.3
20260905123504 65 175 3.5 7.0 0.00 0.00 0.00 98 1017.2
20260905123410 65 141 2.6 5.2 0.00 0.00 0.00 98 1017.2
20260905123314 65 132 1.7 3.5 0.00 0.00 0.00 98 1017.2
20260905123219 65 133 1.7 3.5 0.00 0.00 0.00 98 1017.3
20260905123103 65 133 1.7 3.5 0.00 0.00 0.00 98 1017.3
20260905123007 65 133 1.7 3.5 0.00 0.00 0.00 98 1017.3
20260905122856 65 148 1.7 4.3 0.00 0.00 0.00 98 1017.2
20260905122822 65 149 2.6 4.3 0.00 0.00 0.00 98 1017.2
20260905122700 65 150 2.6 4.3 0.00 0.00 0.00 98 1017.3
20260905122604 65 118 1.7 3.5 0.00 0.00 0.00 98 1017.3
20260905122509 65 129 1.7 3.5 0.00 0.00 0.00 98 1017.3
20260905122414 65 129 2.6 5.2 0.00 0.00 0.00 98 1017.3
20260905122306 65 129 2.6 5.2 0.00 0.00 0.00 98 1017.3
20260905122206 65 118 1.7 5.2 0.00 0.00 0.00 98 1017.4
20260905122130 65 117 2.6 5.2 0.00 0.00 0.00 98 1017.4
20260905122014 65 116 2.6 5.2 0.00 0.00 0.00 97 1017.5
20260905121919 65 112 2.6 5.2 0.00 0.00 0.00 97 1017.5
20260905121802 65 107 2.6 5.2 0.00 0.00 0.00 97 1017.6
20260905121707 65 106 2.6 5.2 0.00 0.00 0.00 98 1017.6
20260905121615 65 120 2.6 4.3 0.00 0.00 0.00 98 1017.5
20260905121500 65 121 2.6 4.3 0.00 0.00 0.00 98 1017.5
20260905121425 65 134 2.6 5.2 0.00 0.00 0.00 98 1017.5
20260905121309 65 135 2.6 6.1 0.00 0.00 0.00 98 1017.5
20260905121213 65 135 2.6 6.1 0.00 0.00 0.00 98 1017.5
20260905121058 65 136 2.6 6.1 0.00 0.00 0.00 98 1017.5
20260905121026 65 114 2.6 6.1 0.00 0.00 0.00 98 1017.5
20260905120910 65 114 2.6 6.1 0.00 0.00 0.00 98 1017.5
20260905120816 65 113 2.6 6.1 0.00 0.00 0.00 98 1017.4
20260905120700 65 110 2.6 6.1 0.00 0.00 0.00 98 1017.5
20260905120625 65 107 3.5 6.1 0.00 0.00 0.00 97 1017.5
20260905120509 65 109 3.5 6.1 0.00 0.00 0.00 97 1017.5
20260905120358 65 105 3.5 6.1 0.00 0.00 0.00 97 1017.5
20260905120322 65 108 3.5 6.1 0.00 0.00 0.00 97 1017.5
20260905120159 65 99 3.5 6.1 0.00 0.00 0.00 97 1017.6
20260905120104 65 109 3.5 6.1 0.00 0.00 0.00 97 1017.6
20260905120009 65 111 3.5 6.1 0.00 0.00 0.00 97 1017.6
20260905115914 65 102 3.5 6.1 0.00 0.00 0.00 97 1017.7
20260905115802 65 92 3.5 6.1 0.00 0.00 0.00 97 1017.7
20260905115727 65 100 3.5 7.0 0.00 0.00 0.00 97 1017.7
20260905115611 65 103 3.5 7.0 0.00 0.00 0.00 97 1017.7
20260905115536 65 96 3.5 7.0 0.00 0.00 0.00 97 1017.6
20260905115400 65 105 3.5 7.0 0.00 0.00 0.00 97 1017.6
20260905115326 65 103 3.5 7.0 0.00 0.00 0.00 97 1017.6
20260905115209 65 95 4.3 7.0 0.00 0.00 0.00 97 1017.6
20260905115058 65 92 4.3 7.0 0.00 0.00 0.00 97 1017.5
20260905115003 65 94 3.5 7.0 0.00 0.00 0.00 97 1017.6
20260905114906 65 84 3.5 7.0 0.00 0.00 0.00 97 1017.6
20260905114811 65 108 3.5 6.1 0.00 0.00 0.00 97 1017.5
20260905114736 65 94 3.5 6.1 0.00 0.00 0.00 97 1017.5
20260905114600 65 90 3.5 5.2 0.00 0.00 0.00 97 1017.5
20260905114505 65 71 2.6 5.2 0.00 0.00 0.00 97 1017.6
20260905114413 65 80 2.6 5.2 0.00 0.00 0.00 97 1017.6
20260905114258 65 103 2.6 5.2 0.00 0.00 0.00 97 1017.6
20260905114203 65 105 2.6 5.2 0.00 0.00 0.00 97 1017.6
20260905114107 65 105 3.5 5.2 0.00 0.00 0.00 97 1017.6
20260905114012 65 88 3.5 5.2 0.00 0.00 0.00 97 1017.6
20260905113901 65 78 2.6 5.2 0.00 0.00 0.00 97 1017.5
20260905113806 65 68 3.5 5.2 0.00 0.00 0.00 97 1017.5
20260905113710 65 84 3.5 5.2 0.00 0.00 0.00 97 1017.5
20260905113615 65 83 4.3 5.2 0.00 0.00 0.00 97 1017.4
20260905113520 65 77 4.3 6.1 0.00 0.00 0.00 97 1017.4
20260905113358 65 82 4.3 6.1 0.00 0.00 0.00 97 1017.3
20260905113306 65 92 4.3 6.1 0.00 0.00 0.00 97 1017.3
20260905113211 65 91 3.5 6.1 0.00 0.00 0.00 97 1017.3
20260905113056 65 96 4.3 6.1 0.00 0.00 0.00 97 1017.3
20260905113001 65 98 4.3 6.1 0.00 0.00 0.00 97 1017.3
20260905112906 65 107 3.5 6.1 0.00 0.00 0.00 97 1017.3
20260905112811 65 90 2.6 5.2 0.00 0.00 0.00 97 1017.3
20260905112700 65 103 2.6 5.2 0.00 0.00 0.00 97 1017.3
20260905112605 65 103 2.6 5.2 0.00 0.00 0.00 97 1017.4
20260905112510 65 103 1.7 5.2 0.00 0.00 0.00 97 1017.4
20260905112415 65 103 1.7 5.2 0.00 0.00 0.00 97 1017.3
20260905112321 65 71 2.6 5.2 0.00 0.00 0.00 97 1017.3
20260905112204 65 109 2.6 5.2 0.00 0.00 0.00 97 1017.3
20260905112112 65 88 2.6 5.2 0.00 0.00 0.00 97 1017.3
20260905112017 65 86 2.6 5.2 0.00 0.00 0.00 97 1017.2
20260905111921 65 85 2.6 5.2 0.00 0.00 0.00 97 1017.2
20260905111759 65 97 2.6 5.2 0.00 0.00 0.00 97 1017.2
20260905111704 65 98 2.6 5.2 0.00 0.00 0.00 97 1017.2
20260905111628 65 99 2.6 5.2 0.00 0.00 0.00 97 1017.2
20260905111512 65 99 2.6 5.2 0.00 0.00 0.00 97 1017.1
20260905111421 65 101 2.6 5.2 0.00 0.00 0.00 97 1017.1
20260905111305 65 105 2.6 5.2 0.00 0.00 0.00 97 1017.1
20260905111211 65 106 2.6 5.2 0.00 0.00 0.00 97 1017.1
20260905111115 65 106 2.6 5.2 0.00 0.00 0.00 97 1017.1
20260905111000 65 107 1.7 5.2 0.00 0.00 0.00 97 1017.1
20260905110905 65 97 2.6 5.2 0.00 0.00 0.00 97 1017.1
20260905110830 65 97 2.6 5.2 0.00 0.00 0.00 97 1017.1
20260905110718 65 97 3.5 5.2 0.00 0.00 0.00 97 1017.2
20260905110601 65 97 3.5 5.2 0.00 0.00 0.00 97 1017.2
20260905110506 65 97 3.5 5.2 0.00 0.00 0.00 97 1017.2
20260905110432 65 93 2.6 5.2 0.00 0.00 0.00 97 1017.2
20260905110315 65 95 2.6 3.5 0.00 0.00 0.00 97 1017.2
20260905110200 65 96 2.6 3.5 0.00 0.00 0.00 97 1017.1
20260905110109 65 96 1.7 3.5 0.00 0.00 0.00 97 1017.1
20260905110014 65 97 2.6 3.5 0.00 0.00 0.00 97 1017.1
20260905105858 65 97 2.6 3.5 0.00 0.00 0.00 97 1017.2
20260905105802 65 97 2.6 3.5 0.00 0.00 0.00 97 1017.2
20260905105707 65 117 2.6 3.5 0.00 0.00 0.00 97 1017.2
20260905105612 65 117 2.6 3.5 0.00 0.00 0.00 97 1017.1
20260905105501 65 117 2.6 3.5 0.00 0.00 0.00 97 1017.2
20260905105406 65 119 2.6 3.5 0.00 0.00 0.00 97 1017.2
20260905105331 65 120 2.6 3.5 0.00 0.00 0.00 97 1017.1
20260905105215 65 120 2.6 3.5 0.00 0.00 0.00 97 1017.1
20260905105140 65 120 2.6 3.5 0.00 0.00 0.00 97 1017.1
20260905104957 65 120 2.6 3.5 0.00 0.00 0.00 97 1017.2
20260905104902 65 121 1.7 3.5 0.00 0.00 0.00 97 1017.2
20260905104811 65 121 1.7 3.5 0.00 0.00 0.00 97 1017.2
20260905104656 65 121 1.7 3.5 0.00 0.00 0.00 97 1017.2
20260905104621 65 123 1.7 3.5 0.00 0.00 0.00 97 1017.2
20260905104459 65 123 1.7 3.5 0.00 0.00 0.00 97 1017.1
20260905104404 65 123 1.7 3.5 0.00 0.00 0.00 97 1017.1
20260905104329 65 123 1.7 3.5 0.00 0.00 0.00 97 1017.1
20260905104157 65 123 1.7 3.5 0.00 0.00 0.00 97 1017.0
20260905104122 65 123 1.7 3.5 0.00 0.00 0.00 97 1017.0
20260905104026 65 123 1.7 3.5 0.00 0.00 0.00 97 1017.0
20260905103910 65 123 2.6 3.5 0.00 0.00 0.00 97 1017.0
20260905103815 65 123 2.6 3.5 0.00 0.00 0.00 97 1016.9
20260905103656 65 127 1.7 2.6 0.00 0.00 0.00 97 1017.0
20260905103601 65 127 1.7 2.6 0.00 0.00 0.00 97 1016.9
20260905103510 65 127 1.7 2.6 0.00 0.00 0.00 97 1016.9
20260905103415 65 127 1.7 2.6 0.00 0.00 0.00 97 1017.0
20260905103319 65 127 1.7 2.6 0.00 0.00 0.00 97 1016.9
20260905103157 65 127 1.7 2.6 0.00 0.00 0.00 97 1017.0
20260905103102 65 127 1.7 2.6 0.00 0.00 0.00 97 1017.0
20260905103006 65 127 1.7 2.6 0.00 0.00 0.00 97 1017.0
20260905102916 65 127 1.7 2.6 0.00 0.00 0.00 97 1017.0
20260905102800 65 127 0.9 2.6 0.00 0.00 0.00 97 1017.1
20260905102705 65 127 0.9 2.6 0.00 0.00 0.00 97 1017.2
20260905102610 65 127 0.9 2.6 0.00 0.00 0.00 97 1017.2
20260905102534 65 127 0.9 2.6 0.00 0.00 0.00 97 1017.1
20260905102358 65 127 0.9 3.5 0.00 0.00 0.00 97 1017.0
20260905102306 65 127 1.7 3.5 0.00 0.00 0.00 97 1017.0
20260905102211 65 127 1.7 3.5 0.00 0.00 0.00 97 1017.0
20260905102056 65 127 1.7 3.5 0.00 0.00 0.00 97 1016.8
20260905102001 65 127 0.9 3.5 0.00 0.00 0.00 97 1016.8
20260905101926 65 127 0.9 3.5 0.00 0.00 0.00 97 1016.8
20260905101811 65 127 1.7 3.5 0.00 0.00 0.00 97 1016.8
20260905101659 65 127 2.6 3.5 0.00 0.00 0.00 97 1016.6
20260905101603 65 127 1.7 2.6 0.00 0.00 0.00 97 1016.6
20260905101508 65 128 1.7 2.6 0.00 0.00 0.00 97 1016.6
20260905101434 65 128 1.7 3.5 0.00 0.00 0.00 97 1016.6
20260905101317 65 128 1.7 3.5 0.00 0.00 0.00 97 1016.7
20260905101242 65 128 1.7 3.5 0.00 0.00 0.00 97 1016.6
20260905101059 65 128 1.7 3.5 0.00 0.00 0.00 97 1016.6
20260905101009 65 128 1.7 3.5 0.00 0.00 0.00 97 1016.6
20260905100913 65 128 1.7 3.5 0.00 0.00 0.00 97 1016.6
20260905100758 65 128 1.7 3.5 0.00 0.00 0.00 97 1016.5
20260905100722 65 128 1.7 3.5 0.00 0.00 0.00 97 1016.5
20260905100605 65 128 2.6 3.5 0.00 0.00 0.00 97 1016.5
20260905100509 65 128 2.6 3.5 0.00 0.00 0.00 97 1016.5
20260905100418 65 129 2.6 4.3 0.00 0.00 0.00 97 1016.4
20260905100323 65 129 2.6 4.3 0.00 0.00 0.00 97 1016.4
20260905100225 65 130 2.6 4.3 0.00 0.00 0.00 97 1016.4
20260905100108 65 131 2.6 4.3 0.00 0.00 0.00 97 1016.4
20260905100032 65 132 2.6 4.3 0.00 0.00 0.00 97 1016.4
20260905095856 65 134 2.6 4.3 0.00 0.00 0.00 97 1016.3
20260905095801 65 136 2.6 4.3 0.00 0.00 0.00 97 1016.3
20260905095706 65 136 1.7 4.3 0.00 0.00 0.00 97 1016.3
20260905095615 65 137 2.6 4.3 0.00 0.00 0.00 97 1016.3
20260905095500 65 137 2.6 5.2 0.00 0.00 0.00 97 1016.2
20260905095405 65 127 2.6 5.2 0.00 0.00 0.00 97 1016.3
20260905095330 65 127 1.7 5.2 0.00 0.00 0.00 97 1016.3
20260905095214 65 127 1.7 5.2 0.00 0.00 0.00 97 1016.3
20260905095058 65 127 2.6 5.2 0.00 0.00 0.00 97 1016.3
20260905095007 65 130 2.6 5.2 0.00 0.00 0.00 97 1016.3
20260905094912 65 113 2.6 5.2 0.00 0.00 0.00 97 1016.3
20260905094756 65 119 2.6 5.2 0.00 0.00 0.00 97 1016.3
20260905094721 65 119 2.6 5.2 0.00 0.00 0.00 97 1016.3
20260905094605 65 119 2.6 5.2 0.00 0.00 0.00 97 1016.2
20260905094511 65 119 1.7 5.2 0.00 0.00 0.00 96 1016.2
20260905094419 65 119 2.6 5.2 0.00 0.00 0.00 97 1016.3
20260905094257 65 121 2.6 5.2 0.00 0.00 0.00 97 1016.3
20260905094221 65 121 2.6 5.2 0.00 0.00 0.00 97 1016.3
20260905094059 65 126 1.7 3.5 0.00 0.00 0.00 96 1016.3
20260905094004 65 126 1.7 3.5 0.00 0.00 0.00 97 1016.2
20260905093909 65 126 2.6 3.5 0.00 0.00 0.00 96 1016.2
20260905093818 65 126 2.6 3.5 0.00 0.00 0.00 97 1016.3
20260905093742 65 125 2.6 3.5 0.00 0.00 0.00 97 1016.3
20260905093559 65 126 1.7 3.5 0.00 0.00 0.00 97 1016.3
20260905093524 65 126 1.7 3.5 0.00 0.00 0.00 97 1016.3
20260905093408 65 126 2.6 3.5 0.00 0.00 0.00 97 1016.3
20260905093332 65 124 2.6 3.5 0.00 0.00 0.00 97 1016.3
20260905093215 65 124 1.7 3.5 0.00 0.00 0.00 96 1016.3
20260905093104 65 126 1.7 3.5 0.00 0.00 0.00 96 1016.3
20260905093029 65 126 1.7 3.5 0.00 0.00 0.00 96 1016.3
20260905092913 65 126 1.7 3.5 0.00 0.00 0.00 96 1016.3
20260905092758 65 126 1.7 6.1 0.00 0.00 0.00 96 1016.4
20260905092703 65 126 2.6 6.1 0.00 0.00 0.00 96 1016.4
20260905092627 65 126 2.6 6.1 0.00 0.00 0.00 96 1016.4
20260905092531 65 126 2.6 6.1 0.00 0.00 0.00 96 1016.3
20260905092400 65 134 2.6 6.1 0.00 0.00 0.00 96 1016.3
20260905092323 65 134 2.6 6.1 0.00 0.00 0.00 96 1016.3
20260905092207 65 134 2.6 6.1 0.00 0.00 0.00 96 1016.3
20260905092112 65 120 3.5 6.1 0.00 0.00 0.00 96 1016.3
20260905092017 65 118 3.5 6.1 0.00 0.00 0.00 96 1016.3
20260905091942 65 111 3.5 6.1 0.00 0.00 0.00 96 1016.4
20260905091759 65 119 3.5 6.1 0.00 0.00 0.00 96 1016.4
20260905091708 65 130 3.5 7.0 0.00 0.00 0.00 96 1016.4
20260905091613 65 130 3.5 7.0 0.00 0.00 0.00 96 1016.4
20260905091458 65 132 3.5 7.0 0.00 0.00 0.00 96 1016.4
20260905091403 65 111 3.5 7.0 0.00 0.00 0.00 96 1016.4
20260905091308 65 112 3.5 7.0 0.00 0.00 0.00 96 1016.4
20260905091213 65 112 4.3 7.0 0.00 0.00 0.00 96 1016.5
20260905091102 65 109 4.3 7.0 0.00 0.00 0.00 96 1016.5
20260905091007 65 113 4.3 7.0 0.00 0.00 0.00 96 1016.5
20260905090912 65 116 4.3 7.0 0.00 0.00 0.00 96 1016.6
20260905090817 65 109 3.5 7.0 0.00 0.00 0.00 96 1016.6
20260905090742 65 108 2.6 7.0 0.00 0.00 0.00 96 1016.5
20260905090559 65 105 3.5 7.0 0.00 0.00 0.00 96 1016.6
20260905090509 65 100 3.5 7.0 0.00 0.00 0.00 96 1016.6
20260905090413 65 108 2.6 7.8 0.00 0.00 0.00 96 1016.6
20260905090318 65 122 2.6 7.8 0.00 0.00 0.00 96 1016.7
20260905090221 65 102 3.5 7.8 0.00 0.00 0.00 96 1016.7
20260905090059 65 106 4.3 7.8 0.00 0.00 0.00 96 1016.7
20260905090004 65 101 3.5 7.8 0.00 0.00 0.00 96 1016.8
20260905085909 65 111 3.5 7.8 0.00 0.00 0.00 96 1016.8
20260905085758 65 109 4.3 7.8 0.00 0.00 0.00 96 1016.7
20260905085703 65 115 4.3 7.8 0.00 0.00 0.00 96 1016.8
20260905085627 65 106 5.2 7.8 0.00 0.00 0.00 96 1016.8
20260905085511 65 85 4.3 7.8 0.00 0.00 0.00 96 1016.8
20260905085356 65 109 3.5 7.8 0.00 0.00 0.00 96 1016.9
20260905085305 65 99 3.5 7.8 0.00 0.00 0.00 96 1016.9
20260905085210 65 111 2.6 7.8 0.00 0.00 0.00 96 1016.9
20260905085135 65 107 3.5 7.8 0.00 0.00 0.00 96 1016.9
20260905084958 65 133 4.3 7.8 0.00 0.00 0.00 96 1016.9
20260905084904 65 107 4.3 7.8 0.00 0.00 0.00 96 1016.9
20260905084828 65 114 4.3 7.8 0.00 0.00 0.00 96 1016.9
20260905084710 65 127 4.3 7.8 0.00 0.00 0.00 96 1016.9
20260905084616 65 126 4.3 6.1 0.00 0.00 0.00 96 1016.8
20260905084504 65 113 4.3 6.1 0.00 0.00 0.00 96 1016.8
20260905084409 65 123 3.5 6.1 0.00 0.00 0.00 96 1016.8
20260905084313 65 117 3.5 6.1 0.00 0.00 0.00 96 1016.8
20260905084158 66 110 4.3 6.1 0.00 0.00 0.00 96 1016.9
20260905084103 66 121 3.5 6.1 0.00 0.00 0.00 96 1016.8
20260905084028 66 107 3.5 6.1 0.00 0.00 0.00 96 1016.8
20260905083856 66 128 4.3 6.1 0.00 0.00 0.00 95 1016.8
20260905083801 65 107 3.5 6.1 0.00 0.00 0.00 96 1016.9
20260905083706 66 108 2.6 6.1 0.00 0.00 0.00 95 1016.9
20260905083611 66 130 2.6 6.1 0.00 0.00 0.00 96 1016.8
20260905083515 66 131 2.6 6.1 0.00 0.00 0.00 95 1016.9
20260905083400 66 131 2.6 6.1 0.00 0.00 0.00 95 1016.9
20260905083307 66 136 2.6 6.1 0.00 0.00 0.00 95 1016.9
20260905083211 66 136 2.6 6.1 0.00 0.00 0.00 95 1016.9
20260905083056 66 136 2.6 6.1 0.00 0.00 0.00 96 1017.0
20260905083021 66 138 2.6 6.1 0.00 0.00 0.00 95 1016.9
20260905082905 66 123 2.6 6.1 0.00 0.00 0.00 95 1016.9
20260905082830 66 126 2.6 6.1 0.00 0.00 0.00 96 1016.9
20260905082733 66 125 3.5 7.8 0.00 0.00 0.00 96 1016.9
20260905082601 66 123 3.5 7.8 0.00 0.00 0.00 96 1016.9
20260905082506 66 138 3.5 7.8 0.00 0.00 0.00 96 1016.9
20260905082411 66 130 3.5 7.8 0.00 0.00 0.00 95 1017.0
20260905082256 66 125 3.5 7.8 0.00 0.00 0.00 95 1017.0
20260905082201 66 126 3.5 7.8 0.00 0.00 0.00 95 1017.0
20260905082105 66 116 4.3 7.8 0.00 0.00 0.00 95 1017.0
20260905082013 66 127 5.2 7.8 0.00 0.00 0.00 95 1017.0
20260905081918 66 109 4.3 7.8 0.00 0.00 0.00 95 1017.0
20260905081803 66 119 4.3 6.1 0.00 0.00 0.00 95 1017.0
20260905081706 66 117 3.5 6.1 0.00 0.00 0.00 95 1017.0
20260905081611 66 117 3.5 6.1 0.00 0.00 0.00 95 1017.0
20260905081537 66 116 3.5 6.1 0.00 0.00 0.00 95 1017.0
20260905081400 66 125 3.5 6.1 0.00 0.00 0.00 95 1017.1
20260905081309 66 126 4.3 6.1 0.00 0.00 0.00 95 1017.1
20260905081213 66 115 4.3 6.1 0.00 0.00 0.00 95 1017.1
20260905081118 66 104 3.5 6.1 0.00 0.00 0.00 95 1017.0
20260905081043 66 134 2.6 6.1 0.00 0.00 0.00 95 1017.1
20260905080859 66 116 2.6 6.1 0.00 0.00 0.00 95 1017.0
20260905080804 66 116 2.6 6.1 0.00 0.00 0.00 95 1017.0
20260905080728 66 117 2.6 6.1 0.00 0.00 0.00 95 1017.0
20260905080556 66 122 2.6 6.1 0.00 0.00 0.00 95 1017.0
20260905080500 66 122 2.6 6.1 0.00 0.00 0.00 95 1017.1
20260905080404 66 133 2.6 6.1 0.00 0.00 0.00 95 1017.0
20260905080329 66 133 3.5 6.1 0.00 0.00 0.00 95 1017.0
20260905080214 66 132 4.3 6.1 0.00 0.00 0.00 95 1017.1
20260905080058 66 115 3.5 6.1 0.00 0.00 0.00 95 1017.0
20260905080005 66 123 3.5 6.1 0.00 0.00 0.00 95 1017.1
20260905075909 66 132 3.5 6.1 0.00 0.00 0.00 95 1017.1
20260905075813 66 127 3.5 6.1 0.00 0.00 0.00 95 1017.1
20260905075718 66 135 3.5 6.1 0.00 0.00 0.00 95 1017.2
20260905075601 66 137 3.5 6.1 0.00 0.00 0.00 95 1017.1
20260905075505 66 117 3.5 7.8 0.00 0.00 0.00 95 1017.1
20260905075410 66 107 2.6 7.8 0.00 0.00 0.00 95 1017.1
20260905075259 66 109 2.6 7.8 0.00 0.00 0.00 95 1017.2
20260905075203 66 107 3.5 7.8 0.00 0.00 0.00 95 1017.1
20260905075128 66 108 4.3 7.8 0.00 0.00 0.00 95 1017.1
20260905075010 66 106 3.5 7.8 0.00 0.00 0.00 95 1017.2
20260905074915 66 103 2.6 7.8 0.00 0.00 0.00 95 1017.1
20260905074800 66 120 4.3 7.8 0.00 0.00 0.00 95 1017.2
20260905074709 66 103 5.2 7.8 0.00 0.00 0.00 95 1017.2
20260905074614 66 116 4.3 7.0 0.00 0.00 0.00 95 1017.2
20260905074519 66 111 4.3 7.0 0.00 0.00 0.00 95 1017.2
20260905074403 66 105 3.5 7.0 0.00 0.00 0.00 95 1017.1
20260905074327 66 138 3.5 7.0 0.00 0.00 0.00 95 1017.1
20260905074210 66 102 2.6 6.1 0.00 0.00 0.00 95 1017.1
20260905074136 66 136 2.6 6.1 0.00 0.00 0.00 95 1017.1
20260905074023 66 116 2.6 6.1 0.00 0.00 0.00 95 1017.0
20260905073906 66 117 3.5 6.1 0.00 0.00 0.00 95 1017.0
20260905073811 66 115 4.3 6.1 0.00 0.00 0.00 95 1017.0
20260905073736 66 112 4.3 6.1 0.00 0.00 0.00 95 1017.0
20260905073600 66 131 4.3 6.1 0.00 0.00 0.00 95 1017.0
20260905073505 66 118 4.3 6.1 0.00 0.00 0.00 95 1017.0
20260905073409 66 114 2.6 6.1 0.00 0.00 0.00 95 1017.0
20260905073258 66 127 2.6 4.3 0.00 0.00 0.00 95 1016.9
20260905073222 66 127 1.7 4.3 0.00 0.00 0.00 95 1017.0
20260905073105 66 146 0.9 4.3 0.00 0.00 0.00 95 1016.9
20260905073010 66 147 1.7 4.3 0.00 0.00 0.00 95 1016.9
20260905072915 66 147 1.7 4.3 0.00 0.00 0.00 95 1016.9
20260905072820 66 147 2.6 4.3 0.00 0.00 0.00 95 1016.9
20260905072708 66 148 2.6 4.3 0.00 0.00 0.00 95 1016.9
20260905072614 66 131 2.6 6.1 0.00 0.00 0.00 95 1016.9
20260905072518 66 127 2.6 6.1 0.00 0.00 0.00 95 1016.9
20260905072356 66 124 1.7 6.1 0.00 0.00 0.00 95 1017.0
20260905072321 66 124 2.6 6.1 0.00 0.00 0.00 95 1017.0
20260905072159 66 119 3.5 6.1 0.00 0.00 0.00 95 1017.0
20260905072108 66 110 3.5 6.1 0.00 0.00 0.00 95 1017.0
20260905072034 66 107 3.5 6.1 0.00 0.00 0.00 95 1017.0
20260905071917 66 123 3.5 6.1 0.00 0.00 0.00 95 1017.0
20260905071842 66 123 3.5 6.1 0.00 0.00 0.00 95 1016.9
20260905071659 66 128 2.6 4.3 0.00 0.00 0.00 95 1016.9
20260905071604 66 128 2.6 3.5 0.00 0.00 0.00 95 1017.0
20260905071508 66 128 1.7 6.1 0.00 0.00 0.00 95 1017.0
20260905071357 66 117 1.7 6.1 0.00 0.00 0.00 95 1016.9
20260905071302 66 117 1.7 6.1 0.00 0.00 0.00 95 1016.9
20260905071207 66 117 0.9 6.1 0.00 0.00 0.00 95 1016.9
20260905071113 66 117 1.7 6.1 0.00 0.00 0.00 95 1016.9
20260905071017 66 117 2.6 6.1 0.00 0.00 0.00 95 1016.9
20260905070920 66 116 2.6 6.1 0.00 0.00 0.00 95 1017.0
20260905070803 66 115 3.5 6.1 0.00 0.00 0.00 95 1016.9
20260905070711 66 115 3.5 6.1 0.00 0.00 0.00 95 1016.9
20260905070615 66 108 3.5 6.1 0.00 0.00 0.00 95 1016.8
20260905070521 66 119 2.6 6.1 0.00 0.00 0.00 95 1016.9
20260905070358 66 124 2.6 6.1 0.00 0.00 0.00 95 1016.9
20260905070323 66 124 2.6 6.1 0.00 0.00 0.00 95 1016.9
20260905070200 66 124 3.5 6.1 0.00 0.00 0.00 95 1016.9
20260905070109 66 108 4.3 6.1 0.00 0.00 0.00 95 1016.9
20260905070014 66 111 3.5 6.1 0.00 0.00 0.00 95 1017.0
20260905065859 66 119 2.6 7.0 0.00 0.00 0.00 95 1017.0
20260905065804 66 120 3.5 7.0 0.00 0.00 0.00 95 1017.0
20260905065709 66 130 3.5 7.0 0.00 0.00 0.00 95 1017.0
20260905065558 66 134 4.3 7.0 0.00 0.00 0.00 95 1017.0
20260905065504 66 108 3.5 7.0 0.00 0.00 0.00 95 1017.0
20260905065408 66 113 3.5 7.0 0.00 0.00 0.00 95 1017.0
20260905065313 66 117 3.5 7.0 0.00 0.00 0.00 95 1017.0
20260905065219 66 102 5.2 7.0 0.00 0.00 0.00 95 1017.0
20260905065102 66 113 5.2 7.0 0.00 0.00 0.00 95 1017.0
20260905065006 66 113 5.2 7.0 0.00 0.00 0.00 95 1017.0
20260905064915 66 118 4.3 7.0 0.00 0.00 0.00 95 1017.0
20260905064820 66 107 4.3 7.0 0.00 0.00 0.00 95 1017.0
20260905064658 66 113 5.2 7.0 0.00 0.00 0.00 95 1017.0
20260905064602 66 96 5.2 7.0 0.00 0.00 0.00 95 1017.0
20260905064527 66 105 4.3 7.0 0.00 0.00 0.00 95 1017.0
20260905064431 66 88 3.5 7.0 0.00 0.00 0.00 95 1016.9
20260905064259 66 117 4.3 7.0 0.00 0.00 0.00 95 1017.1
20260905064225 66 120 4.3 7.0 0.00 0.00 0.00 95 1017.0
20260905064109 66 88 4.3 7.0 0.00 0.00 0.00 95 1017.0
20260905064014 66 110 3.5 7.0 0.00 0.00 0.00 95 1016.9
20260905063919 66 95 4.3 7.0 0.00 0.00 0.00 95 1017.0
20260905063823 66 100 5.2 7.0 0.00 0.00 0.00 95 1017.0
20260905063705 66 79 5.2 7.8 0.00 0.00 0.00 94 1017.0
20260905063610 66 102 5.2 7.8 0.00 0.00 0.00 95 1017.1
20260905063458 66 92 4.3 7.8 0.00 0.00 0.00 95 1017.1
20260905063422 66 81 4.3 7.8 0.00 0.00 0.00 95 1017.1
20260905063300 66 90 4.3 7.8 0.00 0.00 0.00 94 1017.0
20260905063204 66 74 5.2 7.8 0.00 0.00 0.00 94 1017.0
20260905063108 66 99 4.3 7.8 0.00 0.00 0.00 94 1017.0
20260905063013 66 105 5.2 7.8 0.00 0.00 0.00 95 1017.0
20260905062902 66 103 6.1 7.8 0.00 0.00 0.00 95 1017.0
20260905062806 66 109 5.2 7.0 0.00 0.00 0.00 95 1017.0
20260905062711 66 86 4.3 7.0 0.00 0.00 0.00 95 1017.1
20260905062615 66 94 5.2 7.0 0.00 0.00 0.00 95 1017.0
20260905062459 66 101 4.3 7.8 0.00 0.00 0.00 95 1017.0
20260905062405 66 95 4.3 7.8 0.00 0.00 0.00 95 1017.0
20260905062313 66 85 4.3 7.8 0.00 0.00 0.00 95 1017.0
20260905062218 66 111 4.3 7.8 0.00 0.00 0.00 95 1016.9
20260905062143 66 92 3.5 7.8 0.00 0.00 0.00 95 1016.9
20260905062001 66 131 4.3 7.8 0.00 0.00 0.00 95 1016.9
20260905061905 66 114 4.3 7.8 0.00 0.00 0.00 95 1016.9
20260905061809 66 111 5.2 7.8 0.00 0.00 0.00 95 1016.9
20260905061658 66 110 6.1 7.8 0.00 0.00 0.00 95 1016.8
20260905061602 66 108 5.2 9.6 0.00 0.00 0.00 95 1016.9
20260905061507 66 116 4.3 9.6 0.00 0.00 0.00 95 1016.9
20260905061412 66 132 4.3 9.6 0.00 0.00 0.00 95 1016.9
20260905061337 66 92 5.2 9.6 0.00 0.00 0.00 95 1016.9
20260905061221 66 116 5.2 11.3 0.00 0.00 0.00 95 1016.9
20260905061058 66 108 6.1 11.3 0.00 0.00 0.00 95 1016.9
20260905061005 66 98 5.2 11.3 0.00 0.00 0.00 95 1016.9
20260905060910 66 97 4.3 11.3 0.00 0.00 0.00 95 1016.9
20260905060815 66 137 6.1 11.3 0.00 0.00 0.00 95 1016.9
20260905060741 66 98 7.0 11.3 0.00 0.00 0.00 95 1016.8
20260905060558 66 84 7.8 11.3 0.00 0.00 0.00 95 1016.8
20260905060503 66 101 7.8 11.3 0.00 0.00 0.00 95 1016.8
20260905060428 66 91 7.8 11.3 0.00 0.00 0.00 95 1016.8
20260905060316 66 100 7.0 10.4 0.00 0.00 0.00 95 1016.7
20260905060241 66 106 7.0 10.4 0.00 0.00 0.00 95 1016.8
20260905060058 66 100 7.0 10.4 0.00 0.00 0.00 95 1016.7
20260905060004 66 92 7.0 10.4 0.00 0.00 0.00 95 1016.8
20260905055908 66 82 7.0 10.4 0.00 0.00 0.00 95 1016.8
20260905055833 66 94 7.0 10.4 0.00 0.00 0.00 95 1016.7
20260905055700 66 93 7.0 10.4 0.00 0.00 0.00 95 1016.7
20260905055606 66 100 7.0 10.4 0.00 0.00 0.00 95 1016.7
20260905055510 66 87 7.0 9.6 0.00 0.00 0.00 95 1016.7
20260905055415 66 109 6.1 9.6 0.00 0.00 0.00 95 1016.7
20260905055259 66 81 6.1 8.7 0.00 0.00 0.00 95 1016.6
20260905055204 67 98 6.1 8.7 0.00 0.00 0.00 95 1016.6
20260905055128 66 101 5.2 8.7 0.00 0.00 0.00 95 1016.6
20260905055036 66 101 5.2 8.7 0.00 0.00 0.00 95 1016.7
20260905054859 66 79 6.1 8.7 0.00 0.00 0.00 95 1016.6
20260905054804 66 112 6.1 8.7 0.00 0.00 0.00 95 1016.6
20260905054709 66 104 6.1 8.7 0.00 0.00 0.00 95 1016.6
20260905054614 66 92 5.2 7.8 0.00 0.00 0.00 95 1016.6
20260905054459 66 82 5.2 8.7 0.00 0.00 0.00 95 1016.6
20260905054427 66 114 4.3 8.7 0.00 0.00 0.00 95 1016.6
20260905054311 66 114 4.3 8.7 0.00 0.00 0.00 95 1016.6
20260905054236 66 108 5.2 8.7 0.00 0.00 0.00 95 1016.5
20260905054059 66 105 5.2 8.7 0.00 0.00 0.00 95 1016.5
20260905054003 66 112 5.2 8.7 0.00 0.00 0.00 95 1016.5
20260905053928 66 113 5.2 8.7 0.00 0.00 0.00 95 1016.5
20260905053811 66 105 6.1 8.7 0.00 0.00 0.00 95 1016.5
20260905053701 66 111 6.1 8.7 0.00 0.00 0.00 95 1016.5
20260905053605 66 127 6.1 7.8 0.00 0.00 0.00 95 1016.5
20260905053510 66 111 5.2 8.7 0.00 0.00 0.00 95 1016.5
20260905053435 66 105 5.2 8.7 0.00 0.00 0.00 95 1016.6
20260905053319 66 98 5.2 8.7 0.00 0.00 0.00 95 1016.5
20260905053223 66 110 6.1 8.7 0.00 0.00 0.00 95 1016.5
20260905053100 66 111 5.2 8.7 0.00 0.00 0.00 95 1016.5
20260905053009 66 115 5.2 8.7 0.00 0.00 0.00 95 1016.5
20260905052914 66 108 7.0 8.7 0.00 0.00 0.00 95 1016.6
20260905052819 66 118 6.1 8.7 0.00 0.00 0.00 95 1016.5
20260905052656 66 112 4.3 7.8 0.00 0.00 0.00 95 1016.5
20260905052601 66 117 4.3 6.1 0.00 0.00 0.00 95 1016.5
20260905052526 66 121 4.3 6.1 0.00 0.00 0.00 95 1016.5
20260905052430 66 138 4.3 6.1 0.00 0.00 0.00 95 1016.5
20260905052258 66 101 4.3 7.0 0.00 0.00 0.00 95 1016.5
20260905052203 66 120 4.3 7.0 0.00 0.00 0.00 95 1016.5
20260905052128 66 107 3.5 7.0 0.00 0.00 0.00 95 1016.4
20260905052001 66 97 4.3 7.0 0.00 0.00 0.00 95 1016.5
20260905051856 66 125 4.3 7.0 0.00 0.00 0.00 95 1016.4
20260905051753 66 125 4.3 7.0 0.00 0.00 0.00 95 1016.4
20260905051600 66 103 4.3 7.0 0.00 0.00 0.00 95 1016.4
20260905051505 66 131 5.2 7.0 0.00 0.00 0.00 95 1016.4
20260905051414 66 101 4.3 7.0 0.00 0.00 0.00 95 1016.5
20260905051320 66 114 4.3 7.0 0.00 0.00 0.00 95 1016.4
20260905051158 66 103 4.3 7.0 0.00 0.00 0.00 95 1016.4
20260905051103 66 92 5.2 7.0 0.00 0.00 0.00 95 1016.5
20260905051008 66 87 5.2 7.0 0.00 0.00 0.00 94 1016.5
20260905050857 66 112 5.2 7.0 0.00 0.00 0.00 94 1016.5
20260905050821 66 69 4.3 7.0 0.00 0.00 0.00 94 1016.5
20260905050658 66 106 4.3 7.0 0.00 0.00 0.00 94 1016.4
20260905050623 66 94 4.3 7.0 0.00 0.00 0.00 94 1016.4
20260905050500 66 107 5.2 7.0 0.00 0.00 0.00 94 1016.4
20260905050405 66 90 5.2 7.0 0.00 0.00 0.00 94 1016.4
20260905050310 66 102 4.3 7.0 0.00 0.00 0.00 94 1016.4
20260905050218 66 95 4.3 7.0 0.00 0.00 0.00 94 1016.4
20260905050136 66 98 3.5 7.0 0.00 0.00 0.00 94 1016.4
20260905050020 66 98 3.5 6.1 0.00 0.00 0.00 94 1016.5
20260905045903 66 97 3.5 7.0 0.00 0.00 0.00 94 1016.4
20260905045828 66 98 4.3 7.0 0.00 0.00 0.00 94 1016.4
20260905045712 66 108 4.3 7.0 0.00 0.00 0.00 94 1016.4
20260905045617 66 102 2.6 7.0 0.00 0.00 0.00 94 1016.4
20260905045521 66 116 3.5 7.0 0.00 0.00 0.00 94 1016.5
20260905045408 66 103 3.5 7.0 0.00 0.00 0.00 94 1016.5
20260905045313 66 96 3.5 7.0 0.00 0.00 0.00 94 1016.5
20260905045218 66 101 4.3 7.0 0.00 0.00 0.00 94 1016.4
20260905045102 66 115 4.3 7.0 0.00 0.00 0.00 94 1016.5
20260905045027 66 97 3.5 7.0 0.00 0.00 0.00 94 1016.5
20260905044911 66 116 4.3 7.0 0.00 0.00 0.00 94 1016.5
20260905044800 66 109 3.5 7.0 0.00 0.00 0.00 94 1016.5
20260905044706 66 104 3.5 7.0 0.00 0.00 0.00 94 1016.5
20260905044610 66 124 4.3 7.0 0.00 0.00 0.00 94 1016.5
20260905044515 66 122 3.5 7.0 0.00 0.00 0.00 94 1016.4
20260905044400 66 117 3.5 7.0 0.00 0.00 0.00 94 1016.4
20260905044305 66 136 3.5 7.0 0.00 0.00 0.00 94 1016.4
20260905044230 66 128 3.5 7.0 0.00 0.00 0.00 94 1016.4
20260905044138 66 121 4.3 7.0 0.00 0.00 0.00 94 1016.5
20260905043956 66 119 3.5 7.0 0.00 0.00 0.00 94 1016.5
20260905043901 66 117 2.6 7.0 0.00 0.00 0.00 94 1016.5
20260905043806 66 117 3.5 7.0 0.00 0.00 0.00 94 1016.5
20260905043710 66 123 3.5 7.0 0.00 0.00 0.00 94 1016.5
20260905043635 66 130 3.5 7.0 0.00 0.00 0.00 93 1016.5
20260905043503 65 111 2.6 7.0 0.00 0.00 0.00 93 1016.5
20260905043409 65 119 2.6 7.0 0.00 0.00 0.00 93 1016.5
20260905043313 65 133 3.5 7.0 0.00 0.00 0.00 93 1016.5
20260905043158 65 133 3.5 7.0 0.00 0.00 0.00 93 1016.5
20260905043103 65 119 3.5 6.1 0.00 0.00 0.00 93 1016.4
20260905043008 65 136 3.5 6.1 0.00 0.00 0.00 93 1016.4
20260905042857 65 121 2.6 6.1 0.00 0.00 0.00 93 1016.6
20260905042822 65 114 2.6 6.1 0.00 0.00 0.00 93 1016.6
20260905042659 65 113 2.6 6.1 0.00 0.00 0.00 93 1016.5
20260905042622 65 112 2.6 6.1 0.00 0.00 0.00 93 1016.5
20260905042459 65 114 3.5 6.1 0.00 0.00 0.00 93 1016.5
20260905042404 65 101 3.5 6.1 0.00 0.00 0.00 92 1016.6
20260905042314 65 105 3.5 6.1 0.00 0.00 0.00 92 1016.6
20260905042238 65 78 3.5 6.1 0.00 0.00 0.00 92 1016.6
20260905042141 65 112 3.5 6.1 0.00 0.00 0.00 92 1016.6
20260905041958 65 127 4.3 6.1 0.00 0.00 0.00 92 1016.5
20260905041923 65 108 4.3 7.8 0.00 0.00 0.00 92 1016.5
20260905041806 65 107 4.3 7.8 0.00 0.00 0.00 92 1016.6
20260905041711 66 113 4.3 7.8 0.00 0.00 0.00 92 1016.6
20260905041600 66 136 4.3 7.8 0.00 0.00 0.00 92 1016.6
20260905041505 66 99 4.3 7.8 0.00 0.00 0.00 92 1016.6
20260905041411 66 100 4.3 7.8 0.00 0.00 0.00 92 1016.6
20260905041314 66 106 4.3 7.8 0.00 0.00 0.00 92 1016.6
20260905041220 66 103 4.3 7.8 0.00 0.00 0.00 92 1016.7
20260905041057 66 98 3.5 7.0 0.00 0.00 0.00 91 1016.7
20260905041006 66 102 4.3 7.0 0.00 0.00 0.00 91 1016.6
20260905040911 66 96 3.5 7.0 0.00 0.00 0.00 91 1016.6
20260905040756 66 103 2.6 7.0 0.00 0.00 0.00 91 1016.6
20260905040721 66 103 2.6 7.0 0.00 0.00 0.00 91 1016.6
20260905040559 66 113 3.5 7.0 0.00 0.00 0.00 91 1016.5
20260905040503 66 108 3.5 7.0 0.00 0.00 0.00 91 1016.5
20260905040428 66 114 3.5 7.0 0.00 0.00 0.00 91 1016.5
20260905040256 66 90 5.2 7.0 0.00 0.00 0.00 91 1016.5
20260905040201 66 99 5.2 7.0 0.00 0.00 0.00 91 1016.5
20260905040105 67 96 4.3 7.0 0.00 0.00 0.00 91 1016.5
20260905040030 66 103 4.3 7.0 0.00 0.00 0.00 91 1016.5
20260905035914 67 97 5.2 7.0 0.00 0.00 0.00 91 1016.5
20260905035818 67 94 4.3 7.0 0.00 0.00 0.00 91 1016.6
20260905035706 67 88 4.3 7.0 0.00 0.00 0.00 91 1016.5
20260905035611 67 90 4.3 7.0 0.00 0.00 0.00 91 1016.5
20260905035456 67 101 4.3 7.0 0.00 0.00 0.00 91 1016.5
20260905035421 67 113 4.3 7.0 0.00 0.00 0.00 91 1016.5
20260905035306 67 108 3.5 6.1 0.00 0.00 0.00 91 1016.5
20260905035228 67 113 3.5 5.2 0.00 0.00 0.00 91 1016.5
20260905035112 67 108 2.6 5.2 0.00 0.00 0.00 91 1016.5
20260905035001 67 123 1.7 3.5 0.00 0.00 0.00 91 1016.4
20260905034926 67 126 1.7 3.5 0.00 0.00 0.00 91 1016.4
20260905034810 67 126 0.9 3.5 0.00 0.00 0.00 91 1016.4
20260905034715 67 126 0.9 5.2 0.00 0.00 0.00 91 1016.3
20260905034619 67 126 0.9 6.1 0.00 0.00 0.00 91 1016.3
20260905034457 67 126 1.7 6.1 0.00 0.00 0.00 91 1016.4
20260905034422 67 126 1.7 6.1 0.00 0.00 0.00 91 1016.4
20260905034310 67 126 1.7 6.1 0.00 0.00 0.00 91 1016.4
20260905034215 67 126 1.7 7.0 0.00 0.00 0.00 91 1016.4
20260905034100 67 126 2.6 7.0 0.00 0.00 0.00 91 1016.4
20260905034025 67 124 2.6 7.0 0.00 0.00 0.00 91 1016.4
20260905033909 67 124 3.5 7.0 0.00 0.00 0.00 91 1016.4
20260905033814 67 123 3.5 7.0 0.00 0.00 0.00 91 1016.5
20260905033703 67 136 2.6 7.0 0.00 0.00 0.00 91 1016.5
20260905033608 67 136 2.6 7.0 0.00 0.00 0.00 90 1016.5
20260905033533 67 114 3.5 7.0 0.00 0.00 0.00 90 1016.4
20260905033357 67 107 4.3 7.0 0.00 0.00 0.00 90 1016.4
20260905033320 67 113 4.3 7.0 0.00 0.00 0.00 90 1016.5
20260905033204 67 127 4.3 7.0 0.00 0.00 0.00 90 1016.4
20260905033109 67 126 4.3 7.0 0.00 0.00 0.00 90 1016.4
20260905032957 67 119 4.3 7.0 0.00 0.00 0.00 90 1016.4
20260905032922 67 113 3.5 7.0 0.00 0.00 0.00 90 1016.4
20260905032806 67 113 4.3 7.0 0.00 0.00 0.00 90 1016.4
20260905032711 67 116 5.2 7.0 0.00 0.00 0.00 90 1016.4
20260905032556 68 109 4.3 7.0 0.00 0.00 0.00 90 1016.5
20260905032501 68 113 3.5 7.0 0.00 0.00 0.00 90 1016.4
20260905032409 68 111 3.5 7.0 0.00 0.00 0.00 89 1016.4
20260905032314 68 105 4.3 7.0 0.00 0.00 0.00 89 1016.5
20260905032219 68 117 4.3 7.0 0.00 0.00 0.00 89 1016.4
20260905032057 68 110 4.3 7.0 0.00 0.00 0.00 89 1016.4
20260905032001 68 112 4.3 7.0 0.00 0.00 0.00 89 1016.4
20260905031906 68 87 4.3 7.0 0.00 0.00 0.00 89 1016.4
20260905031815 68 102 4.3 7.0 0.00 0.00 0.00 89 1016.4
20260905031720 68 98 4.3 7.0 0.00 0.00 0.00 89 1016.4
20260905031557 68 92 4.3 7.0 0.00 0.00 0.00 89 1016.3
20260905031521 68 98 4.3 7.8 0.00 0.00 0.00 89 1016.3
20260905031359 68 117 3.5 7.8 0.00 0.00 0.00 89 1016.3
20260905031304 68 105 3.5 7.8 0.00 0.00 0.00 89 1016.3
20260905031228 68 110 3.5 7.8 0.00 0.00 0.00 89 1016.4
20260905031056 68 115 3.5 7.8 0.00 0.00 0.00 89 1016.4
20260905031022 68 125 3.5 7.8 0.00 0.00 0.00 89 1016.4
20260905030859 69 109 5.2 7.8 0.00 0.00 0.00 89 1016.3
20260905030804 69 113 5.2 7.8 0.00 0.00 0.00 88 1016.3
20260905030729 69 130 3.5 7.8 0.00 0.00 0.00 88 1016.3
20260905030632 69 117 2.6 7.8 0.00 0.00 0.00 88 1016.3
20260905030456 69 121 2.6 7.8 0.00 0.00 0.00 88 1016.3
20260905030405 69 122 3.5 7.8 0.00 0.00 0.00 88 1016.3
20260905030308 69 130 5.2 7.8 0.00 0.00 0.00 88 1016.3
20260905030213 69 111 4.3 9.6 0.00 0.00 0.00 88 1016.3
20260905030058 69 111 4.3 9.6 0.00 0.00 0.00 88 1016.4
20260905030004 69 103 5.2 9.6 0.00 0.00 0.00 88 1016.3
20260905025908 69 127 4.3 9.6 0.00 0.00 0.00 88 1016.3
20260905025757 69 137 4.3 9.6 0.00 0.00 0.00 88 1016.3
20260905025721 69 135 5.2 9.6 0.00 0.00 0.00 88 1016.3
20260905025600 69 102 4.3 9.6 0.00 0.00 0.00 88 1016.3
20260905025504 69 132 6.1 9.6 0.00 0.00 0.00 88 1016.2
20260905025429 69 137 5.2 9.6 0.00 0.00 0.00 88 1016.2
20260905025313 69 120 5.2 7.8 0.00 0.00 0.00 88 1016.2
20260905025222 69 117 5.2 7.8 0.00 0.00 0.00 88 1016.2
20260905025059 69 130 4.3 7.8 0.00 0.00 0.00 88 1016.2
20260905025003 69 107 4.3 7.8 0.00 0.00 0.00 88 1016.3
20260905024908 69 86 4.3 7.8 0.00 0.00 0.00 88 1016.2
20260905024831 69 109 4.3 7.8 0.00 0.00 0.00 88 1016.2
20260905024715 69 115 5.2 7.8 0.00 0.00 0.00 88 1016.2
20260905024620 69 107 5.2 7.0 0.00 0.00 0.00 88 1016.2
20260905024528 69 128 4.3 8.7 0.00 0.00 0.00 87 1016.2
20260905024412 70 138 4.3 8.7 0.00 0.00 0.00 88 1016.2
20260905024314 70 116 4.3 8.7 0.00 0.00 0.00 88 1016.2
20260905024219 70 116 5.2 8.7 0.00 0.00 0.00 88 1016.3
20260905024057 70 98 4.3 8.7 0.00 0.00 0.00 88 1016.2
20260905024022 70 125 4.3 8.7 0.00 0.00 0.00 88 1016.2
20260905023906 70 111 4.3 8.7 0.00 0.00 0.00 88 1016.2
20260905023830 70 115 6.1 8.7 0.00 0.00 0.00 88 1016.2
20260905023718 70 114 6.1 8.7 0.00 0.00 0.00 88 1016.2
20260905023603 70 130 5.2 8.7 0.00 0.00 0.00 87 1016.1
20260905023507 70 127 5.2 8.7 0.00 0.00 0.00 87 1016.2
20260905023411 70 115 5.2 8.7 0.00 0.00 0.00 87 1016.2
20260905023336 70 113 5.2 7.8 0.00 0.00 0.00 87 1016.2
20260905023220 70 121 5.2 7.8 0.00 0.00 0.00 87 1016.2
20260905023104 70 118 5.2 7.8 0.00 0.00 0.00 87 1016.1
20260905023013 70 107 5.2 7.8 0.00 0.00 0.00 87 1016.1
20260905022917 70 110 4.3 7.8 0.00 0.00 0.00 87 1016.1
20260905022842 70 116 5.2 8.7 0.00 0.00 0.00 87 1016.0
20260905022659 70 110 5.2 8.7 0.00 0.00 0.00 87 1016.0
20260905022603 70 95 4.3 8.7 0.00 0.00 0.00 87 1016.0
20260905022508 70 116 5.2 8.7 0.00 0.00 0.00 86 1016.0
20260905022357 70 113 5.2 8.7 0.00 0.00 0.00 86 1016.0
20260905022321 70 115 5.2 8.7 0.00 0.00 0.00 86 1016.0
20260905022159 70 117 5.2 8.7 0.00 0.00 0.00 86 1016.0
20260905022104 70 105 5.2 8.7 0.00 0.00 0.00 86 1016.0
20260905022009 71 119 5.2 8.7 0.00 0.00 0.00 86 1016.0
20260905021933 71 108 5.2 7.8 0.00 0.00 0.00 86 1016.0
20260905021802 71 112 5.2 7.0 0.00 0.00 0.00 86 1016.0
20260905021705 71 108 5.2 9.6 0.00 0.00 0.00 86 1016.0
20260905021630 71 109 5.2 9.6 0.00 0.00 0.00 86 1016.0
20260905021514 71 113 4.3 9.6 0.00 0.00 0.00 86 1016.0
20260905021358 71 122 4.3 9.6 0.00 0.00 0.00 86 1016.0
20260905021322 71 134 5.2 9.6 0.00 0.00 0.00 85 1016.0
20260905021159 71 105 5.2 9.6 0.00 0.00 0.00 86 1016.0
20260905021107 71 119 5.2 9.6 0.00 0.00 0.00 85 1016.0
20260905021012 71 117 6.1 10.4 0.00 0.00 0.00 85 1016.0
20260905020915 71 117 6.1 10.4 0.00 0.00 0.00 85 1015.9
20260905020819 71 102 5.2 10.4 0.00 0.00 0.00 85 1016.0
20260905020657 71 137 5.2 10.4 0.00 0.00 0.00 85 1015.9
20260905020602 71 111 6.1 10.4 0.00 0.00 0.00 85 1015.9
20260905020531 71 110 7.0 10.4 0.00 0.00 0.00 85 1015.9
20260905020415 71 115 6.1 10.4 0.00 0.00 0.00 85 1015.9
20260905020320 71 108 7.0 10.4 0.00 0.00 0.00 85 1015.9
20260905020158 71 119 7.8 10.4 0.00 0.00 0.00 85 1015.9
20260905020007 72 109 6.1 8.7 0.00 0.00 0.00 85 1015.9
20260905015915 72 114 7.0 8.7 0.00 0.00 0.00 85 1015.9
20260905015800 72 135 6.1 7.8 0.00 0.00 0.00 85 1015.8
20260905015725 72 102 6.1 9.6 0.00 0.00 0.00 84 1015.8
20260905015609 72 113 5.2 9.6 0.00 0.00 0.00 84 1015.8
20260905015514 72 116 5.2 9.6 0.00 0.00 0.00 84 1015.8
20260905015400 72 117 5.2 9.6 0.00 0.00 0.00 84 1015.8
20260905015308 72 96 4.3 9.6 0.00 0.00 0.00 84 1015.8
20260905015213 72 115 4.3 9.6 0.00 0.00 0.00 84 1015.8
20260905015118 72 114 4.3 9.6 0.00 0.00 0.00 84 1015.8
20260905015022 72 115 6.1 9.6 0.00 0.00 0.00 84 1015.7
20260905014906 72 123 7.0 9.6 0.00 0.00 0.00 84 1015.7
20260905014811 72 115 7.0 9.6 0.00 0.00 0.00 84 1015.7
20260905014736 72 123 7.0 9.6 0.00 0.00 0.00 84 1015.8
20260905014604 72 122 7.0 10.4 0.00 0.00 0.00 84 1015.7
20260905014509 72 117 7.0 11.3 0.00 0.00 0.00 84 1015.7
20260905014430 72 105 7.0 11.3 0.00 0.00 0.00 84 1015.6
20260905014314 72 107 7.0 11.3 0.00 0.00 0.00 84 1015.7
20260905014220 72 144 7.8 11.3 0.00 0.00 0.00 84 1015.6
20260905014057 72 108 7.0 11.3 0.00 0.00 0.00 84 1015.6
20260905014002 72 125 7.0 11.3 0.00 0.00 0.00 84 1015.6
20260905013910 73 117 7.0 11.3 0.00 0.00 0.00 84 1015.6
20260905013815 73 103 7.8 11.3 0.00 0.00 0.00 84 1015.6
20260905013700 73 100 7.0 11.3 0.00 0.00 0.00 83 1015.6
20260905013625 73 102 5.2 7.8 0.00 0.00 0.00 83 1015.6
20260905013508 73 114 5.2 7.8 0.00 0.00 0.00 83 1015.5
20260905013432 73 90 5.2 8.7 0.00 0.00 0.00 83 1015.5
20260905013300 73 80 4.3 9.6 0.00 0.00 0.00 83 1015.5
20260905013205 73 90 5.2 9.6 0.00 0.00 0.00 83 1015.4
20260905013108 73 92 5.2 9.6 0.00 0.00 0.00 83 1015.4
20260905013014 73 96 5.2 9.6 0.00 0.00 0.00 83 1015.4
20260905012858 73 94 5.2 9.6 0.00 0.00 0.00 83 1015.4
20260905012803 73 113 5.2 9.6 0.00 0.00 0.00 83 1015.4
20260905012710 73 84 6.1 9.6 0.00 0.00 0.00 83 1015.4
20260905012615 73 121 7.0 9.6 0.00 0.00 0.00 82 1015.4
20260905012521 73 96 7.0 9.6 0.00 0.00 0.00 82 1015.4
20260905012358 74 107 6.1 8.7 0.00 0.00 0.00 82 1015.4
20260905012323 74 116 5.2 8.7 0.00 0.00 0.00 82 1015.3
20260905012207 74 108 6.1 8.7 0.00 0.00 0.00 82 1015.4
20260905012132 74 111 6.1 8.7 0.00 0.00 0.00 82 1015.4
20260905012000 74 110 6.1 8.7 0.00 0.00 0.00 82 1015.3
20260905011905 74 103 6.1 8.7 0.00 0.00 0.00 82 1015.3
20260905011811 74 79 4.3 8.7 0.00 0.00 0.00 82 1015.3
20260905011735 74 91 3.5 7.0 0.00 0.00 0.00 82 1015.3
20260905011558 74 84 3.5 7.0 0.00 0.00 0.00 82 1015.2
20260905011503 74 105 3.5 7.8 0.00 0.00 0.00 81 1015.2
20260905011411 74 78 4.3 7.8 0.00 0.00 0.00 81 1015.2
20260905011316 74 104 4.3 7.8 0.00 0.00 0.00 81 1015.2
20260905011241 74 97 4.3 7.8 0.00 0.00 0.00 81 1015.1
20260905011057 75 82 4.3 7.8 0.00 0.00 0.00 80 1015.1
20260905011002 75 97 4.3 8.7 0.00 0.00 0.00 80 1015.1
20260905010905 75 107 4.3 8.7 0.00 0.00 0.00 80 1015.1
20260905010810 75 116 5.2 8.7 0.00 0.00 0.00 80 1015.1
20260905010719 75 98 5.2 8.7 0.00 0.00 0.00 80 1015.1
20260905010623 75 107 4.3 8.7 0.00 0.00 0.00 80 1015.0
20260905010526 75 105 5.2 9.6 0.00 0.00 0.00 80 1015.0
20260905010410 75 108 5.2 10.4 0.00 0.00 0.00 80 1015.0
20260905010335 75 106 6.1 10.4 0.00 0.00 0.00 80 1015.0
20260905010218 75 117 6.1 10.4 0.00 0.00 0.00 80 1015.0
20260905010143 75 112 6.1 10.4 0.00 0.00 0.00 80 1015.0
20260905005959 75 116 6.1 10.4 0.00 0.00 0.00 79 1014.9
20260905005905 75 117 6.1 10.4 0.00 0.00 0.00 80 1015.0
20260905005809 75 113 6.1 10.4 0.00 0.00 0.00 80 1015.0
20260905005714 75 113 7.0 10.4 0.00 0.00 0.00 80 1014.9
20260905005619 75 103 6.1 10.4 0.00 0.00 0.00 79 1014.9
20260905005522 76 103 6.1 10.4 0.00 0.00 0.00 79 1014.9
20260905005406 76 121 7.0 10.4 0.00 0.00 0.00 79 1014.9
20260905005311 76 77 7.0 9.6 0.00 0.00 0.00 79 1014.9
20260905005200 76 111 6.1 8.7 0.00 0.00 0.00 79 1014.9
20260905005105 76 98 5.2 8.7 0.00 0.00 0.00 79 1015.0
20260905005010 76 98 5.2 8.7 0.00 0.00 0.00 79 1015.0
20260905004914 76 103 5.2 8.7 0.00 0.00 0.00 79 1014.9
20260905004819 76 84 5.2 8.7 0.00 0.00 0.00 79 1014.9
20260905004703 76 119 5.2 8.7 0.00 0.00 0.00 79 1014.9
20260905004612 76 91 5.2 8.7 0.00 0.00 0.00 79 1014.9
20260905004456 76 100 6.1 8.7 0.00 0.00 0.00 79 1014.9
20260905004401 77 94 5.2 9.6 0.00 0.00 0.00 79 1014.9
20260905004305 77 103 4.3 11.3 0.00 0.00 0.00 78 1014.8
20260905004210 77 95 5.2 11.3 0.00 0.00 0.00 78 1014.8
20260905004115 77 91 5.2 11.3 0.00 0.00 0.00 78 1014.8
20260905004004 77 91 5.2 11.3 0.00 0.00 0.00 78 1014.9
20260905003909 77 110 5.2 11.3 0.00 0.00 0.00 77 1014.9
20260905003814 77 111 6.1 11.3 0.00 0.00 0.00 77 1014.9
20260905003658 77 94 7.0 11.3 0.00 0.00 0.00 77 1014.9
20260905003603 77 103 7.8 11.3 0.00 0.00 0.00 77 1014.9
20260905003508 77 111 7.0 11.3 0.00 0.00 0.00 77 1014.9
20260905003357 77 88 6.1 9.6 0.00 0.00 0.00 77 1014.8
20260905003302 77 87 6.1 9.6 0.00 0.00 0.00 77 1014.9
20260905003206 78 66 6.1 9.6 0.00 0.00 0.00 77 1014.9
20260905003110 78 90 6.1 9.6 0.00 0.00 0.00 77 1014.9
20260905003015 78 98 7.0 9.6 0.00 0.00 0.00 77 1014.8
20260905002900 78 107 7.0 9.6 0.00 0.00 0.00 77 1014.8
20260905002829 78 105 6.1 9.6 0.00 0.00 0.00 77 1014.8
20260905002712 78 101 6.1 9.6 0.00 0.00 0.00 77 1014.8
20260905002556 78 108 6.1 9.6 0.00 0.00 0.00 77 1014.8
20260905002501 78 96 6.1 9.6 0.00 0.00 0.00 77 1014.7
20260905002406 78 95 6.1 9.6 0.00 0.00 0.00 77 1014.7
20260905002310 78 93 6.1 10.4 0.00 0.00 0.00 77 1014.7
20260905002219 79 91 6.1 10.4 0.00 0.00 0.00 77 1014.7
20260905002057 79 93 6.1 10.4 0.00 0.00 0.00 77 1014.6
20260905002022 79 93 7.0 10.4 0.00 0.00 0.00 76 1014.6
20260905001858 79 94 7.8 10.4 0.00 0.00 0.00 76 1014.6
20260905001803 79 94 7.8 10.4 0.00 0.00 0.00 76 1014.6
20260905001707 79 88 7.0 10.4 0.00 0.00 0.00 76 1014.5
20260905001614 79 100 7.0 10.4 0.00 0.00 0.00 76 1014.5
20260905001519 79 101 7.0 10.4 0.00 0.00 0.00 76 1014.5
20260905001357 79 87 7.0 10.4 0.00 0.00 0.00 76 1014.5
20260905001322 79 116 7.8 10.4 0.00 0.00 0.00 75 1014.5
20260905001205 80 87 7.0 10.4 0.00 0.00 0.00 76 1014.5
20260905001130 80 101 5.2 10.4 0.00 0.00 0.00 76 1014.5
20260905001014 80 80 6.1 10.4 0.00 0.00 0.00 75 1014.5
20260905000902 80 92 7.0 10.4 0.00 0.00 0.00 75 1014.5
20260905000808 80 101 6.1 10.4 0.00 0.00 0.00 75 1014.4
20260905000711 80 91 6.1 10.4 0.00 0.00 0.00 75 1014.4
20260905000556 80 86 7.8 10.4 0.00 0.00 0.00 75 1014.4
20260905000501 80 90 7.8 10.4 0.00 0.00 0.00 75 1014.4
20260905000406 80 92 7.8 10.4 0.00 0.00 0.00 75 1014.4
20260905000315 81 98 7.8 10.4 0.00 0.00 0.00 74 1014.4
20260905000219 81 105 6.1 10.4 0.00 0.00 0.00 75 1014.4
20260905000057 81 98 5.2 8.7 0.00 0.00 0.00 74 1014.4
20260905000002 81 104 4.3 8.7 0.00 0.00 0.00 74 1014.4
20260904235907 81 96 3.5 8.7 0.00 0.00 0.00 74 1014.4
20260904235811 81 117 4.3 8.7 0.00 0.00 0.00 74 1014.4
20260904235740 81 92 5.2 9.6 0.00 0.00 0.00 74 1014.3
20260904235557 81 103 5.2 9.6 0.00 0.00 0.00 73 1014.3
20260904235502 81 109 6.1 9.6 0.00 0.00 0.00 73 1014.3
20260904235427 81 114 6.1 9.6 0.00 0.00 0.00 73 1014.3
20260904235311 81 102 5.2 9.6 0.00 0.00 0.00 73 1014.3
20260904235236 81 101 5.2 9.6 0.00 0.00 0.00 73 1014.3
20260904235121 81 109 6.1 9.6 0.00 0.00 0.00 73 1014.3
20260904235025 81 96 7.0 9.6 0.00 0.00 0.00 73 1014.3
20260904234913 81 85 6.1 9.6 0.00 0.00 0.00 73 1014.3
20260904234818 82 98 5.2 7.8 0.00 0.00 0.00 73 1014.2
20260904234702 82 127 6.1 7.8 0.00 0.00 0.00 73 1014.3
20260904234606 82 101 6.1 8.7 0.00 0.00 0.00 73 1014.3
20260904234510 82 100 6.1 8.7 0.00 0.00 0.00 73 1014.3
20260904234415 82 92 5.2 9.6 0.00 0.00 0.00 73 1014.2
20260904234304 82 105 6.1 9.6 0.00 0.00 0.00 72 1014.3
20260904234209 82 126 6.1 9.6 0.00 0.00 0.00 73 1014.3
20260904234112 82 80 6.1 9.6 0.00 0.00 0.00 73 1014.3
20260904233956 82 93 6.1 9.6 0.00 0.00 0.00 72 1014.3
20260904233901 82 95 7.0 9.6 0.00 0.00 0.00 72 1014.3
20260904233806 82 125 7.0 9.6 0.00 0.00 0.00 72 1014.3
20260904233715 82 117 7.8 9.6 0.00 0.00 0.00 72 1014.3
20260904233600 82 117 7.0 10.4 0.00 0.00 0.00 72 1014.3
20260904233524 82 112 5.2 10.4 0.00 0.00 0.00 72 1014.3
20260904233408 82 122 5.2 11.3 0.00 0.00 0.00 72 1014.3
20260904233313 82 101 6.1 11.3 0.00 0.00 0.00 72 1014.4
20260904233157 82 111 6.1 11.3 0.00 0.00 0.00 72 1014.3
20260904233105 82 109 7.0 11.3 0.00 0.00 0.00 72 1014.4
20260904233010 82 92 7.8 11.3 0.00 0.00 0.00 72 1014.4
20260904232935 82 86 7.8 11.3 0.00 0.00 0.00 72 1014.3
20260904232819 82 86 7.0 11.3 0.00 0.00 0.00 72 1014.3
20260904232656 82 72 7.8 11.3 0.00 0.00 0.00 72 1014.3
20260904232621 82 107 7.8 11.3 0.00 0.00 0.00 72 1014.2
20260904232505 82 80 7.0 10.4 0.00 0.00 0.00 72 1014.2
20260904232414 82 90 7.8 10.4 0.00 0.00 0.00 72 1014.2
20260904232259 82 82 8.7 10.4 0.00 0.00 0.00 71 1014.2
20260904232204 82 109 7.8 10.4 0.00 0.00 0.00 72 1014.1
20260904232109 82 88 7.0 10.4 0.00 0.00 0.00 72 1014.1
20260904232034 82 103 7.0 10.4 0.00 0.00 0.00 71 1014.2
20260904231858 82 92 7.8 10.4 0.00 0.00 0.00 71 1014.2
20260904231807 82 88 7.8 10.4 0.00 0.00 0.00 71 1014.3
20260904231711 82 84 7.0 10.4 0.00 0.00 0.00 71 1014.3
20260904231615 83 112 7.8 10.4 0.00 0.00 0.00 71 1014.3
20260904231500 83 89 8.7 10.4 0.00 0.00 0.00 71 1014.2
20260904231425 83 91 7.8 10.4 0.00 0.00 0.00 71 1014.2
20260904231309 83 93 7.0 10.4 0.00 0.00 0.00 71 1014.2
20260904231158 83 95 7.0 10.4 0.00 0.00 0.00 71 1014.3
20260904231103 83 71 7.8 10.4 0.00 0.00 0.00 71 1014.2
20260904231008 83 96 7.0 10.4 0.00 0.00 0.00 71 1014.2
20260904230913 83 94 6.1 10.4 0.00 0.00 0.00 71 1014.2
20260904230758 83 78 7.0 10.4 0.00 0.00 0.00 71 1014.2
20260904230703 83 42 7.8 10.4 0.00 0.00 0.00 71 1014.2
20260904230612 83 96 7.8 10.4 0.00 0.00 0.00 71 1014.2
20260904230517 83 84 7.8 11.3 0.00 0.00 0.00 70 1014.1
20260904230421 83 90 8.7 11.3 0.00 0.00 0.00 71 1014.1
20260904230305 83 92 8.7 11.3 0.00 0.00 0.00 70 1014.1
20260904230230 83 90 7.0 11.3 0.00 0.00 0.00 71 1014.1
20260904230112 83 90 6.1 11.3 0.00 0.00 0.00 71 1014.1
20260904230018 83 82 6.1 11.3 0.00 0.00 0.00 71 1014.2
20260904225901 83 88 7.0 11.3 0.00 0.00 0.00 71 1014.2
20260904225810 83 111 7.8 11.3 0.00 0.00 0.00 71 1014.2
20260904225715 83 94 7.0 11.3 0.00 0.00 0.00 70 1014.2
20260904225600 83 115 7.0 10.4 0.00 0.00 0.00 70 1014.2
20260904225505 83 121 7.0 10.4 0.00 0.00 0.00 71 1014.2
20260904225410 83 84 7.0 10.4 0.00 0.00 0.00 70 1014.2
20260904225300 83 94 7.0 10.4 0.00 0.00 0.00 70 1014.3
20260904225204 83 103 7.0 10.4 0.00 0.00 0.00 70 1014.2
20260904225109 83 117 7.0 10.4 0.00 0.00 0.00 70 1014.2
20260904225014 83 86 7.0 10.4 0.00 0.00 0.00 70 1014.3
20260904224919 83 84 7.0 10.4 0.00 0.00 0.00 70 1014.2
20260904224802 83 99 7.8 10.4 0.00 0.00 0.00 70 1014.2
20260904224708 83 90 7.0 10.4 0.00 0.00 0.00 70 1014.1
20260904224615 83 91 6.1 10.4 0.00 0.00 0.00 70 1014.1
20260904224500 83 92 7.0 10.4 0.00 0.00 0.00 70 1014.2
20260904224425 83 101 7.0 10.4 0.00 0.00 0.00 70 1014.2
20260904224308 84 96 6.1 10.4 0.00 0.00 0.00 70 1014.2
20260904224213 84 98 6.1 10.4 0.00 0.00 0.00 70 1014.2
20260904224058 84 117 6.1 10.4 0.00 0.00 0.00 70 1014.3
20260904224007 84 95 6.1 10.4 0.00 0.00 0.00 70 1014.2
20260904223911 84 119 7.8 10.4 0.00 0.00 0.00 70 1014.2
20260904223835 84 104 7.8 10.4 0.00 0.00 0.00 70 1014.3
20260904223719 84 115 5.2 9.6 0.00 0.00 0.00 70 1014.2
20260904223602 84 123 5.2 9.6 0.00 0.00 0.00 70 1014.1
20260904223507 84 113 7.0 9.6 0.00 0.00 0.00 70 1014.1
20260904223412 84 103 7.0 9.6 0.00 0.00 0.00 70 1014.1
20260904223300 84 81 7.0 9.6 0.00 0.00 0.00 70 1014.1
20260904223225 84 76 7.8 9.6 0.00 0.00 0.00 70 1014.1
20260904223109 84 94 6.1 10.4 0.00 0.00 0.00 70 1014.1
20260904223034 84 65 6.1 10.4 0.00 0.00 0.00 69 1014.1
20260904222857 84 108 7.0 10.4 0.00 0.00 0.00 70 1014.0
20260904222802 84 87 6.1 10.4 0.00 0.00 0.00 70 1014.0
20260904222707 84 92 6.1 10.4 0.00 0.00 0.00 70 1014.1
20260904222557 84 107 6.1 10.4 0.00 0.00 0.00 70 1014.0
20260904222500 84 113 6.1 10.4 0.00 0.00 0.00 70 1014.0
20260904222425 84 91 7.0 10.4 0.00 0.00 0.00 70 1013.9
20260904222309 84 104 8.7 10.4 0.00 0.00 0.00 70 1013.9
20260904222234 84 115 7.8 10.4 0.00 0.00 0.00 70 1014.0
20260904222058 84 129 6.1 9.6 0.00 0.00 0.00 70 1014.0
20260904222006 84 119 5.2 9.6 0.00 0.00 0.00 70 1014.0
20260904221910 84 101 4.3 9.6 0.00 0.00 0.00 70 1014.0
20260904221815 84 135 4.3 9.6 0.00 0.00 0.00 71 1014.0
20260904221700 84 117 5.2 9.6 0.00 0.00 0.00 70 1013.9
20260904221625 84 132 7.0 9.6 0.00 0.00 0.00 70 1013.9
20260904221529 84 92 7.0 9.6 0.00 0.00 0.00 71 1013.9
20260904221413 84 97 6.1 11.3 0.00 0.00 0.00 71 1013.9
20260904221302 84 84 5.2 11.3 0.00 0.00 0.00 71 1013.8
20260904221206 84 105 5.2 11.3 0.00 0.00 0.00 71 1013.8
20260904221130 84 99 5.2 11.3 0.00 0.00 0.00 71 1013.8
20260904221014 84 126 6.1 11.3 0.00 0.00 0.00 71 1013.8
20260904220859 84 103 7.8 11.3 0.00 0.00 0.00 71 1013.8
20260904220803 84 114 6.1 11.3 0.00 0.00 0.00 71 1013.8
20260904220708 84 106 6.1 11.3 0.00 0.00 0.00 71 1013.8
20260904220557 84 99 7.8 11.3 0.00 0.00 0.00 71 1013.8
20260904220501 84 119 6.1 9.6 0.00 0.00 0.00 71 1013.7
20260904220425 84 103 4.3 9.6 0.00 0.00 0.00 71 1013.7
20260904220329 84 127 4.3 9.6 0.00 0.00 0.00 70 1013.7
20260904220232 84 107 6.1 9.6 0.00 0.00 0.00 71 1013.7
20260904220056 84 109 4.3 9.6 0.00 0.00 0.00 71 1013.7
20260904220001 84 114 5.2 9.6 0.00 0.00 0.00 71 1013.7
20260904215910 84 87 6.1 9.6 0.00 0.00 0.00 71 1013.7
20260904215815 84 111 5.2 9.6 0.00 0.00 0.00 71 1013.8
20260904215700 84 139 5.2 9.6 0.00 0.00 0.00 71 1013.7
20260904215605 84 113 6.1 9.6 0.00 0.00 0.00 71 1013.7
20260904215510 84 107 7.0 9.6 0.00 0.00 0.00 71 1013.7
20260904215434 84 121 7.0 9.6 0.00 0.00 0.00 71 1013.7
20260904215305 84 106 6.1 9.6 0.00 0.00 0.00 71 1013.6
20260904215206 84 92 4.3 9.6 0.00 0.00 0.00 72 1013.6
20260904215131 84 51 4.3 9.6 0.00 0.00 0.00 72 1013.6
20260904215015 84 53 4.3 9.6 0.00 0.00 0.00 72 1013.6
20260904214900 84 90 5.2 9.6 0.00 0.00 0.00 71 1013.6
20260904214805 84 83 6.1 9.6 0.00 0.00 0.00 71 1013.7
20260904214710 84 86 6.1 9.6 0.00 0.00 0.00 72 1013.7
20260904214616 84 95 5.2 9.6 0.00 0.00 0.00 71 1013.7
20260904214520 84 107 4.3 9.6 0.00 0.00 0.00 72 1013.7
20260904214424 84 105 6.1 9.6 0.00 0.00 0.00 71 1013.6
20260904214308 84 86 7.0 9.6 0.00 0.00 0.00 71 1013.6
20260904214213 84 96 7.0 9.6 0.00 0.00 0.00 71 1013.6
20260904214118 84 98 6.1 9.6 0.00 0.00 0.00 71 1013.7
20260904214022 84 86 4.3 9.6 0.00 0.00 0.00 71 1013.7
20260904213910 84 109 4.3 9.6 0.00 0.00 0.00 71 1013.7
20260904213815 84 115 5.2 9.6 0.00 0.00 0.00 71 1013.7
20260904213720 84 121 6.1 9.6 0.00 0.00 0.00 71 1013.6
20260904213604 84 98 7.0 9.6 0.00 0.00 0.00 71 1013.6
20260904213509 84 94 6.1 8.7 0.00 0.00 0.00 71 1013.6
20260904213414 84 103 5.2 8.7 0.00 0.00 0.00 71 1013.6
20260904213303 84 88 6.1 8.7 0.00 0.00 0.00 71 1013.6
20260904213206 84 98 6.1 8.7 0.00 0.00 0.00 71 1013.7
20260904213111 84 121 5.2 8.7 0.00 0.00 0.00 70 1013.7
20260904213035 84 117 6.1 8.7 0.00 0.00 0.00 71 1013.6
20260904212859 84 153 6.1 8.7 0.00 0.00 0.00 71 1013.7
20260904212804 84 99 6.1 8.7 0.00 0.00 0.00 71 1013.7
20260904212728 84 105 6.1 7.8 0.00 0.00 0.00 71 1013.6
20260904212632 84 115 5.2 7.8 0.00 0.00 0.00 71 1013.6
20260904212520 84 104 5.2 9.6 0.00 0.00 0.00 71 1013.6
20260904212404 84 95 4.3 9.6 0.00 0.00 0.00 71 1013.7
20260904212329 84 130 4.3 9.6 0.00 0.00 0.00 70 1013.7
20260904212213 84 115 4.3 9.6 0.00 0.00 0.00 71 1013.7
20260904212058 84 120 3.5 9.6 0.00 0.00 0.00 71 1013.7
20260904212002 84 118 4.3 9.6 0.00 0.00 0.00 71 1013.8
20260904211906 84 136 5.2 9.6 0.00 0.00 0.00 71 1013.8
20260904211814 83 130 6.1 9.6 0.00 0.00 0.00 71 1013.8
20260904211659 83 111 5.2 9.6 0.00 0.00 0.00 71 1013.8
20260904211603 83 113 4.3 8.7 0.00 0.00 0.00 72 1013.8
20260904211506 83 85 4.3 9.6 0.00 0.00 0.00 71 1013.8
20260904211411 83 120 5.2 9.6 0.00 0.00 0.00 71 1013.8
20260904211259 83 107 5.2 9.6 0.00 0.00 0.00 71 1013.8
20260904211204 83 83 4.3 9.6 0.00 0.00 0.00 71 1013.8
20260904211127 83 91 5.2 9.6 0.00 0.00 0.00 71 1013.8
20260904211011 83 91 6.1 9.6 0.00 0.00 0.00 71 1013.8
20260904210915 83 109 6.1 9.6 0.00 0.00 0.00 71 1013.8
20260904210800 83 105 7.0 9.6 0.00 0.00 0.00 71 1013.8
20260904210705 83 105 7.0 9.6 0.00 0.00 0.00 71 1013.7
20260904210634 83 57 6.1 9.6 0.00 0.00 0.00 71 1013.7
20260904210457 83 84 4.3 9.6 0.00 0.00 0.00 71 1013.8
20260904210421 83 84 4.3 9.6 0.00 0.00 0.00 72 1013.8
20260904210258 83 115 4.3 9.6 0.00 0.00 0.00 72 1013.8
20260904210203 83 96 5.2 9.6 0.00 0.00 0.00 71 1013.8
20260904210107 83 72 5.2 10.4 0.00 0.00 0.00 72 1013.9
20260904210015 83 115 4.3 10.4 0.00 0.00 0.00 72 1013.9
20260904205900 83 79 6.1 10.4 0.00 0.00 0.00 71 1013.8
20260904205805 83 84 6.1 10.4 0.00 0.00 0.00 71 1013.8
20260904205710 83 109 5.2 10.4 0.00 0.00 0.00 72 1013.8
20260904205615 83 79 5.2 10.4 0.00 0.00 0.00 72 1013.8
20260904205500 83 87 5.2 10.4 0.00 0.00 0.00 72 1013.8
20260904205407 83 100 7.0 12.2 0.00 0.00 0.00 71 1013.8
20260904205332 83 105 7.0 12.2 0.00 0.00 0.00 71 1013.8
20260904205215 83 115 6.1 12.2 0.00 0.00 0.00 72 1013.8
20260904205101 83 92 6.1 12.2 0.00 0.00 0.00 71 1013.9
20260904205005 83 116 5.2 12.2 0.00 0.00 0.00 71 1013.9
20260904204930 83 117 5.2 12.2 0.00 0.00 0.00 71 1013.9
20260904204758 83 163 7.0 12.2 0.00 0.00 0.00 70 1013.9
20260904204723 83 119 7.0 12.2 0.00 0.00 0.00 71 1013.8
20260904204626 83 107 7.0 12.2 0.00 0.00 0.00 72 1013.8
20260904204510 83 135 7.0 12.2 0.00 0.00 0.00 72 1013.8
20260904204415 83 110 8.7 12.2 0.00 0.00 0.00 72 1013.8
20260904204300 83 105 7.8 12.2 0.00 0.00 0.00 72 1013.7
20260904204224 83 105 7.0 12.2 0.00 0.00 0.00 72 1013.8
20260904204108 83 84 7.8 12.2 0.00 0.00 0.00 72 1013.7
20260904203956 83 90 7.8 12.2 0.00 0.00 0.00 72 1013.7
20260904203901 83 85 7.0 12.2 0.00 0.00 0.00 72 1013.7
20260904203805 83 69 7.0 12.2 0.00 0.00 0.00 73 1013.7
20260904203710 83 86 7.0 12.2 0.00 0.00 0.00 73 1013.7
20260904203614 83 119 7.0 12.2 0.00 0.00 0.00 74 1013.7
20260904203503 83 94 6.1 12.2 0.00 0.00 0.00 74 1013.7
20260904203408 83 90 7.0 12.2 0.00 0.00 0.00 74 1013.7
20260904203313 83 91 7.8 12.2 0.00 0.00 0.00 74 1013.8
20260904203158 82 105 6.1 12.2 0.00 0.00 0.00 75 1013.8
20260904203123 82 87 4.3 7.8 0.00 0.00 0.00 75 1013.7
20260904203028 82 157 5.2 9.6 0.00 0.00 0.00 75 1013.7
20260904202911 83 140 6.1 9.6 0.00 0.00 0.00 75 1013.7
20260904202759 83 92 6.1 9.6 0.00 0.00 0.00 75 1013.7
20260904202724 83 116 5.2 9.6 0.00 0.00 0.00 75 1013.7
20260904202608 82 117 5.2 9.6 0.00 0.00 0.00 74 1013.7
20260904202533 82 113 5.2 9.6 0.00 0.00 0.00 75 1013.7
20260904202417 83 123 5.2 9.6 0.00 0.00 0.00 76 1013.7
20260904202300 82 84 6.1 9.6 0.00 0.00 0.00 75 1013.6
20260904202204 82 80 7.8 9.6 0.00 0.00 0.00 75 1013.7
20260904202108 82 89 7.0 9.6 0.00 0.00 0.00 74 1013.6